Time,TemperatureF,DewpointF,PressureIn,WindDirection,WindDirectionDegrees,WindSpeedMPH,WindSpeedGustMPH,Humidity,HourlyPrecipIn,Conditions,Clouds,dailyrainin,SolarRadiationWatts/m^2,SoftwareType,DateUTC
2013-04-14 00:02:00,66.9,50.7,29.70,SE,139,11.0,0.0,56,0.00,,,0.00,0,WeatherHawk,2013-04-14 07:02:00,
2013-04-14 00:03:00,66.9,50.7,29.70,SE,139,11.0,-999.0,56,0.00,,,0.00,0,WeatherHawk,2013-04-14 07:03:00,
2013-04-14 00:06:00,66.7,50.5,29.70,SE,134,11.0,0.0,56,0.00,,,0.00,0,WeatherHawk,2013-04-14 07:06:00,
2013-04-14 00:08:00,66.7,50.5,29.70,SE,128,11.0,14.0,56,0.00,,,0.00,0,WeatherHawk,2013-04-14 07:08:00,
2013-04-14 00:10:00,66.6,50.4,29.70,SE,139,12.0,14.0,56,0.00,,,0.00,0,WeatherHawk,2013-04-14 07:10:00,
2013-04-14 00:13:00,66.6,50.4,29.70,SE,135,13.0,14.0,56,0.00,,,0.00,0,WeatherHawk,2013-04-14 07:13:00,
2013-04-14 00:16:00,66.6,50.8,29.70,SE,130,10.0,14.0,57,0.00,,,0.00,0,WeatherHawk,2013-04-14 07:16:00,
2013-04-14 00:17:00,66.6,50.8,29.70,SE,129,10.0,14.0,57,0.00,,,0.00,1,WeatherHawk,2013-04-14 07:17:00,
2013-04-14 00:19:00,66.4,50.7,29.70,SE,138,8.0,14.0,57,0.00,,,0.00,0,WeatherHawk,2013-04-14 07:19:00,
2013-04-14 00:22:00,66.4,50.7,29.70,SE,132,10.0,-999.0,57,0.00,,,0.00,0,WeatherHawk,2013-04-14 07:22:00,
2013-04-14 00:24:00,66.2,51.0,29.70,SE,132,10.0,14.0,58,0.00,,,0.00,0,WeatherHawk,2013-04-14 07:24:00,
2013-04-14 00:26:00,66.2,51.0,29.70,SE,137,11.0,14.0,58,0.00,,,0.00,0,WeatherHawk,2013-04-14 07:26:00,
2013-04-14 00:27:00,66.2,51.0,29.70,SE,137,9.0,-999.0,58,0.00,,,0.00,0,WeatherHawk,2013-04-14 07:27:00,
2013-04-14 00:32:00,66.4,51.6,29.70,SE,133,13.0,13.0,59,0.00,,,0.00,0,WeatherHawk,2013-04-14 07:32:00,
2013-04-14 00:33:00,66.4,51.6,29.70,SE,140,12.0,13.0,59,0.00,,,0.00,0,WeatherHawk,2013-04-14 07:33:00,
2013-04-14 00:35:00,66.2,51.4,29.70,ESE,122,10.0,13.0,59,0.00,,,0.00,0,WeatherHawk,2013-04-14 07:35:00,
2013-04-14 00:39:00,66.2,51.9,29.70,ESE,121,11.0,0.0,60,0.00,,,0.00,0,WeatherHawk,2013-04-14 07:39:00,
2013-04-14 00:41:00,66.2,52.3,29.70,ESE,122,10.0,0.0,61,0.00,,,0.00,0,WeatherHawk,2013-04-14 07:41:00,
2013-04-14 00:42:00,66.0,52.2,29.70,ESE,120,7.0,0.0,61,0.00,,,0.00,0,WeatherHawk,2013-04-14 07:42:00,
2013-04-14 00:47:00,66.0,52.2,29.70,SE,128,8.0,0.0,61,0.00,,,0.00,0,WeatherHawk,2013-04-14 07:47:00,
2013-04-14 00:48:00,66.0,52.6,29.70,SE,130,12.0,0.0,62,0.00,,,0.00,0,WeatherHawk,2013-04-14 07:48:00,
2013-04-14 00:49:00,66.0,52.6,29.70,ESE,120,14.0,15.0,62,0.00,,,0.00,0,WeatherHawk,2013-04-14 07:49:00,
2013-04-14 00:55:00,65.8,52.9,29.70,SE,127,12.0,15.0,63,0.00,,,0.00,0,WeatherHawk,2013-04-14 07:55:00,
2013-04-14 00:56:00,65.7,52.7,29.70,ESE,121,12.0,15.0,63,0.00,,,0.00,0,WeatherHawk,2013-04-14 07:56:00,
2013-04-14 00:57:00,65.7,52.7,29.70,ESE,119,12.0,15.0,63,0.00,,,0.00,0,WeatherHawk,2013-04-14 07:57:00,
2013-04-14 01:02:00,65.7,52.3,29.70,ESE,120,12.0,15.0,62,0.00,,,0.00,0,WeatherHawk,2013-04-14 08:02:00,
2013-04-14 01:04:00,65.8,52.4,29.70,SE,127,13.0,15.0,62,0.00,,,0.00,0,WeatherHawk,2013-04-14 08:04:00,
2013-04-14 01:07:00,65.8,52.0,29.69,SE,131,15.0,15.0,61,0.00,,,0.00,1,WeatherHawk,2013-04-14 08:07:00,
2013-04-14 01:09:00,65.8,52.0,29.70,SE,128,12.0,17.0,61,0.00,,,0.00,0,WeatherHawk,2013-04-14 08:09:00,
2013-04-14 01:10:00,65.7,51.8,29.70,SE,133,12.0,17.0,61,0.00,,,0.00,0,WeatherHawk,2013-04-14 08:10:00,
2013-04-14 01:12:00,65.8,51.6,29.69,SE,135,13.0,17.0,60,0.00,,,0.00,0,WeatherHawk,2013-04-14 08:12:00,
2013-04-14 01:15:00,65.7,51.4,29.69,SE,139,11.0,17.0,60,0.00,,,0.00,0,WeatherHawk,2013-04-14 08:15:00,
2013-04-14 01:17:00,65.7,51.4,29.69,SE,137,10.0,17.0,60,0.00,,,0.00,0,WeatherHawk,2013-04-14 08:17:00,
2013-04-14 01:19:00,65.5,51.2,29.69,SE,130,11.0,14.0,60,0.00,,,0.00,0,WeatherHawk,2013-04-14 08:19:00,
2013-04-14 01:22:00,65.3,51.5,29.69,SE,136,9.0,-999.0,61,0.00,,,0.00,0,WeatherHawk,2013-04-14 08:22:00,
2013-04-14 01:23:00,65.1,51.3,29.69,SE,135,10.0,14.0,61,0.00,,,0.00,0,WeatherHawk,2013-04-14 08:23:00,
2013-04-14 01:24:00,65.1,51.3,29.69,SE,131,12.0,14.0,61,0.00,,,0.00,0,WeatherHawk,2013-04-14 08:24:00,
2013-04-14 01:26:00,65.1,51.3,29.69,SE,131,12.0,14.0,61,0.00,,,0.00,0,WeatherHawk,2013-04-14 08:26:00,
2013-04-14 01:32:00,64.9,51.2,29.69,ESE,121,12.0,13.0,61,0.00,,,0.00,1,WeatherHawk,2013-04-14 08:32:00,
2013-04-14 01:33:00,64.9,51.2,29.69,SE,132,14.0,14.0,61,0.00,,,0.00,0,WeatherHawk,2013-04-14 08:33:00,
2013-04-14 01:37:00,64.9,51.2,29.69,SE,127,11.0,13.0,61,0.00,,,0.00,0,WeatherHawk,2013-04-14 08:37:00,
2013-04-14 01:38:00,64.9,51.2,29.69,SE,126,11.0,14.0,61,0.00,,,0.00,1,WeatherHawk,2013-04-14 08:38:00,
2013-04-14 01:40:00,64.9,51.2,29.69,SE,127,10.0,14.0,61,0.00,,,0.00,1,WeatherHawk,2013-04-14 08:40:00,
2013-04-14 01:42:00,64.8,51.0,29.69,SE,133,11.0,-999.0,61,0.00,,,0.00,0,WeatherHawk,2013-04-14 08:42:00,
2013-04-14 01:44:00,64.8,51.0,29.68,SE,129,11.0,14.0,61,0.00,,,0.00,1,WeatherHawk,2013-04-14 08:44:00,
2013-04-14 01:45:00,64.9,51.2,29.68,SE,125,10.0,14.0,61,0.00,,,0.00,0,WeatherHawk,2013-04-14 08:45:00,
2013-04-14 01:47:00,64.8,51.0,29.68,SE,127,10.0,14.0,61,0.00,,,0.00,0,WeatherHawk,2013-04-14 08:47:00,
2013-04-14 01:48:00,64.8,51.0,29.68,SE,126,11.0,14.0,61,0.00,,,0.00,0,WeatherHawk,2013-04-14 08:48:00,
2013-04-14 01:50:00,64.9,51.2,29.68,SE,124,13.0,13.0,61,0.00,,,0.00,0,WeatherHawk,2013-04-14 08:50:00,
2013-04-14 01:53:00,64.9,51.6,29.68,ESE,123,11.0,-999.0,62,0.00,,,0.00,0,WeatherHawk,2013-04-14 08:53:00,
2013-04-14 01:56:00,64.8,51.4,29.68,SE,125,11.0,13.0,62,0.00,,,0.00,0,WeatherHawk,2013-04-14 08:56:00,
2013-04-14 01:57:00,64.8,51.4,29.68,SE,126,11.0,13.0,62,0.00,,,0.00,0,WeatherHawk,2013-04-14 08:57:00,
2013-04-14 01:58:00,64.8,51.4,29.68,SE,133,10.0,-999.0,62,0.00,,,0.00,0,WeatherHawk,2013-04-14 08:58:00,
2013-04-14 02:03:00,64.8,51.4,29.68,SE,129,13.0,14.0,62,0.00,,,0.00,0,WeatherHawk,2013-04-14 09:03:00,
2013-04-14 02:04:00,64.8,51.4,29.68,SE,125,9.0,14.0,62,0.00,,,0.00,0,WeatherHawk,2013-04-14 09:04:00,
2013-04-14 02:08:00,64.8,51.4,29.68,SE,135,9.0,-999.0,62,0.00,,,0.00,0,WeatherHawk,2013-04-14 09:08:00,
2013-04-14 02:10:00,64.6,51.3,29.67,SE,132,11.0,13.0,62,0.00,,,0.00,0,WeatherHawk,2013-04-14 09:10:00,
2013-04-14 02:11:00,64.6,51.3,29.67,SE,131,11.0,13.0,62,0.00,,,0.00,0,WeatherHawk,2013-04-14 09:11:00,
2013-04-14 02:13:00,64.6,51.3,29.67,SE,132,10.0,-999.0,62,0.00,,,0.00,0,WeatherHawk,2013-04-14 09:13:00,
2013-04-14 02:18:00,64.6,51.3,29.67,SE,142,6.0,13.0,62,0.00,,,0.00,0,WeatherHawk,2013-04-14 09:18:00,
2013-04-14 02:20:00,64.6,51.7,29.67,SE,126,10.0,13.0,63,0.00,,,0.00,0,WeatherHawk,2013-04-14 09:20:00,
2013-04-14 02:23:00,64.6,51.3,29.67,ESE,119,10.0,13.0,62,0.00,,,0.00,0,WeatherHawk,2013-04-14 09:23:00,
2013-04-14 02:26:00,64.8,51.4,29.67,SE,135,9.0,13.0,62,0.00,,,0.00,0,WeatherHawk,2013-04-14 09:26:00,
2013-04-14 02:27:00,64.8,51.4,29.67,SE,128,12.0,13.0,62,0.00,,,0.00,0,WeatherHawk,2013-04-14 09:27:00,
2013-04-14 02:28:00,64.9,51.6,29.67,SE,132,12.0,-999.0,62,0.00,,,0.00,0,WeatherHawk,2013-04-14 09:28:00,
2013-04-14 02:29:00,64.9,51.6,29.67,SE,132,12.0,13.0,62,0.00,,,0.00,0,WeatherHawk,2013-04-14 09:29:00,
2013-04-14 02:33:00,64.9,51.6,29.67,SE,125,9.0,14.0,62,0.00,,,0.00,0,WeatherHawk,2013-04-14 09:33:00,
2013-04-14 02:35:00,64.9,51.6,29.67,SE,134,12.0,14.0,62,0.00,,,0.00,0,WeatherHawk,2013-04-14 09:35:00,
2013-04-14 02:38:00,64.8,51.4,29.67,SE,129,11.0,14.0,62,0.00,,,0.00,0,WeatherHawk,2013-04-14 09:38:00,
2013-04-14 02:39:00,64.8,51.4,29.67,SE,138,12.0,0.0,62,0.00,,,0.00,0,WeatherHawk,2013-04-14 09:39:00,
2013-04-14 02:40:00,64.8,51.4,29.67,SE,129,12.0,13.0,62,0.00,,,0.00,1,WeatherHawk,2013-04-14 09:40:00,
2013-04-14 02:45:00,64.6,51.3,29.67,SE,133,12.0,13.0,62,0.00,,,0.00,0,WeatherHawk,2013-04-14 09:45:00,
2013-04-14 02:47:00,64.6,51.3,29.67,SE,138,10.0,13.0,62,0.00,,,0.00,0,WeatherHawk,2013-04-14 09:47:00,
2013-04-14 02:48:00,64.8,51.4,29.67,SE,132,10.0,13.0,62,0.00,,,0.00,0,WeatherHawk,2013-04-14 09:48:00,
2013-04-14 02:50:00,64.8,51.4,29.67,SE,130,9.0,14.0,62,0.00,,,0.00,0,WeatherHawk,2013-04-14 09:50:00,
2013-04-14 02:53:00,64.8,51.4,29.67,SE,134,9.0,14.0,62,0.00,,,0.00,0,WeatherHawk,2013-04-14 09:53:00,
2013-04-14 02:59:00,64.9,51.2,29.67,SE,126,13.0,0.0,61,0.00,,,0.00,0,WeatherHawk,2013-04-14 09:59:00,
2013-04-14 03:00:00,65.1,51.3,29.67,SE,130,8.0,15.0,61,0.00,,,0.00,0,WeatherHawk,2013-04-14 10:00:00,
2013-04-14 03:01:00,64.9,51.2,29.67,SE,131,10.0,15.0,61,0.00,,,0.00,0,WeatherHawk,2013-04-14 10:01:00,
2013-04-14 03:05:00,64.9,51.2,29.67,SE,128,12.0,15.0,61,0.00,,,0.00,0,WeatherHawk,2013-04-14 10:05:00,
2013-04-14 03:08:00,64.9,51.2,29.66,ESE,121,8.0,15.0,61,0.00,,,0.00,0,WeatherHawk,2013-04-14 10:08:00,
2013-04-14 03:10:00,64.8,51.4,29.66,SE,128,12.0,13.0,62,0.00,,,0.00,0,WeatherHawk,2013-04-14 10:10:00,
2013-04-14 03:11:00,64.9,51.2,29.67,ESE,119,10.0,13.0,61,0.00,,,0.00,0,WeatherHawk,2013-04-14 10:11:00,
2013-04-14 03:13:00,64.9,51.2,29.67,ESE,123,11.0,13.0,61,0.00,,,0.00,0,WeatherHawk,2013-04-14 10:13:00,
2013-04-14 03:14:00,64.8,51.4,29.66,SE,128,9.0,13.0,62,0.00,,,0.00,0,WeatherHawk,2013-04-14 10:14:00,
2013-04-14 03:16:00,64.8,51.4,29.66,SE,125,12.0,13.0,62,0.00,,,0.00,0,WeatherHawk,2013-04-14 10:16:00,
2013-04-14 03:18:00,64.9,51.6,29.66,SE,130,10.0,-999.0,62,0.00,,,0.00,0,WeatherHawk,2013-04-14 10:18:00,
2013-04-14 03:20:00,64.9,51.2,29.66,SE,129,10.0,14.0,61,0.00,,,0.00,0,WeatherHawk,2013-04-14 10:20:00,
2013-04-14 03:22:00,65.1,51.3,29.66,SE,129,12.0,14.0,61,0.00,,,0.00,0,WeatherHawk,2013-04-14 10:22:00,
2013-04-14 03:27:00,65.3,51.1,29.66,ESE,120,9.0,14.0,60,0.00,,,0.00,0,WeatherHawk,2013-04-14 10:27:00,
2013-04-14 03:29:00,65.3,51.1,29.66,SE,135,11.0,14.0,60,0.00,,,0.00,0,WeatherHawk,2013-04-14 10:29:00,
2013-04-14 03:31:00,65.1,50.9,29.66,ESE,120,11.0,14.0,60,0.00,,,0.00,0,WeatherHawk,2013-04-14 10:31:00,
2013-04-14 03:35:00,65.1,50.9,29.66,ESE,115,10.0,14.0,60,0.00,,,0.00,0,WeatherHawk,2013-04-14 10:35:00,
2013-04-14 03:38:00,65.1,50.9,29.66,ESE,113,12.0,14.0,60,0.00,,,0.00,0,WeatherHawk,2013-04-14 10:38:00,
2013-04-14 03:42:00,64.6,50.8,29.66,ESE,121,8.0,12.0,61,0.00,,,0.00,0,WeatherHawk,2013-04-14 10:42:00,
2013-04-14 03:48:00,64.4,51.1,29.66,SE,131,10.0,12.0,62,0.00,,,0.00,0,WeatherHawk,2013-04-14 10:48:00,
2013-04-14 03:50:00,64.4,51.1,29.66,SE,128,11.0,13.0,62,0.00,,,0.00,0,WeatherHawk,2013-04-14 10:50:00,
2013-04-14 03:53:00,64.4,51.1,29.66,SE,134,9.0,13.0,62,0.00,,,0.00,0,WeatherHawk,2013-04-14 10:53:00,
2013-04-14 03:54:00,64.2,50.9,29.65,SE,133,12.0,13.0,62,0.00,,,0.00,0,WeatherHawk,2013-04-14 10:54:00,
2013-04-14 03:55:00,64.2,50.9,29.65,ESE,122,13.0,13.0,62,0.00,,,0.00,0,WeatherHawk,2013-04-14 10:55:00,
2013-04-14 04:00:00,64.4,50.7,29.65,SE,124,13.0,13.0,61,0.00,,,0.00,0,WeatherHawk,2013-04-14 11:00:00,
2013-04-14 04:01:00,64.4,50.7,29.65,ESE,119,11.0,13.0,61,0.00,,,0.00,0,WeatherHawk,2013-04-14 11:01:00,
2013-04-14 04:03:00,64.4,51.1,29.65,ESE,120,11.0,-999.0,62,0.00,,,0.00,0,WeatherHawk,2013-04-14 11:03:00,
2013-04-14 04:06:00,64.4,51.1,29.65,ESE,119,10.0,13.0,62,0.00,,,0.00,0,WeatherHawk,2013-04-14 11:06:00,
2013-04-14 04:08:00,64.4,51.1,29.65,SE,127,14.0,-999.0,62,0.00,,,0.00,0,WeatherHawk,2013-04-14 11:08:00,
2013-04-14 04:09:00,64.4,51.1,29.65,ESE,120,13.0,14.0,62,0.00,,,0.00,0,WeatherHawk,2013-04-14 11:09:00,
2013-04-14 04:11:00,64.4,51.1,29.65,ESE,117,12.0,14.0,62,0.00,,,0.00,0,WeatherHawk,2013-04-14 11:11:00,
2013-04-14 04:13:00,64.2,50.9,29.66,SE,125,14.0,-999.0,62,0.00,,,0.00,0,WeatherHawk,2013-04-14 11:13:00,
2013-04-14 04:15:00,64.4,51.1,29.66,ESE,118,9.0,14.0,62,0.00,,,0.00,0,WeatherHawk,2013-04-14 11:15:00,
2013-04-14 04:17:00,64.4,50.7,29.66,ESE,123,12.0,14.0,61,0.00,,,0.00,0,WeatherHawk,2013-04-14 11:17:00,
2013-04-14 04:18:00,64.4,50.7,29.66,SE,125,14.0,14.0,61,0.00,,,0.00,0,WeatherHawk,2013-04-14 11:18:00,
2013-04-14 04:21:00,64.4,50.7,29.66,ESE,119,10.0,15.0,61,0.00,,,0.00,0,WeatherHawk,2013-04-14 11:21:00,
2013-04-14 04:22:00,64.4,50.7,29.66,ESE,118,11.0,15.0,61,0.00,,,0.00,1,WeatherHawk,2013-04-14 11:22:00,
2013-04-14 04:23:00,64.4,50.7,29.66,ESE,118,9.0,15.0,61,0.00,,,0.00,0,WeatherHawk,2013-04-14 11:23:00,
2013-04-14 04:26:00,64.6,50.8,29.65,ESE,122,11.0,15.0,61,0.00,,,0.00,1,WeatherHawk,2013-04-14 11:26:00,
2013-04-14 04:28:00,64.6,50.8,29.65,ESE,123,11.0,15.0,61,0.00,,,0.00,0,WeatherHawk,2013-04-14 11:28:00,
2013-04-14 04:29:00,64.6,50.8,29.65,SE,131,10.0,15.0,61,0.00,,,0.00,0,WeatherHawk,2013-04-14 11:29:00,
2013-04-14 04:33:00,64.6,50.8,29.66,ESE,123,9.0,15.0,61,0.00,,,0.00,0,WeatherHawk,2013-04-14 11:33:00,
2013-04-14 04:34:00,64.6,50.8,29.65,SE,128,11.0,15.0,61,0.00,,,0.00,0,WeatherHawk,2013-04-14 11:34:00,
2013-04-14 04:35:00,64.6,50.8,29.65,SE,128,13.0,15.0,61,0.00,,,0.00,0,WeatherHawk,2013-04-14 11:35:00,
2013-04-14 04:39:00,64.4,50.7,29.66,ESE,119,11.0,0.0,61,0.00,,,0.00,0,WeatherHawk,2013-04-14 11:39:00,
2013-04-14 04:41:00,64.4,50.7,29.66,ESE,119,13.0,15.0,61,0.00,,,0.00,0,WeatherHawk,2013-04-14 11:41:00,
2013-04-14 04:43:00,64.4,50.7,29.66,ESE,113,13.0,15.0,61,0.00,,,0.00,0,WeatherHawk,2013-04-14 11:43:00,
2013-04-14 04:46:00,64.4,50.7,29.65,ESE,122,16.0,16.0,61,0.00,,,0.00,0,WeatherHawk,2013-04-14 11:46:00,
2013-04-14 04:47:00,64.4,50.7,29.65,ESE,116,12.0,15.0,61,0.00,,,0.00,1,WeatherHawk,2013-04-14 11:47:00,
2013-04-14 04:48:00,64.4,50.7,29.65,ESE,116,12.0,-999.0,61,0.00,,,0.00,1,WeatherHawk,2013-04-14 11:48:00,
2013-04-14 04:53:00,64.2,50.5,29.65,SE,126,14.0,16.0,61,0.00,,,0.00,0,WeatherHawk,2013-04-14 11:53:00,
2013-04-14 04:58:00,64.2,50.5,29.65,ESE,122,14.0,-999.0,61,0.00,,,0.00,0,WeatherHawk,2013-04-14 11:58:00,
2013-04-14 04:59:00,64.2,50.9,29.65,SE,126,12.0,17.0,62,0.00,,,0.00,1,WeatherHawk,2013-04-14 11:59:00,
2013-04-14 05:01:00,64.0,50.8,29.65,SE,125,13.0,17.0,62,0.00,,,0.00,0,WeatherHawk,2013-04-14 12:01:00,
2013-04-14 05:02:00,64.0,50.8,29.65,SE,133,14.0,17.0,62,0.00,,,0.00,0,WeatherHawk,2013-04-14 12:02:00,
2013-04-14 05:03:00,64.0,50.8,29.65,ESE,122,14.0,17.0,62,0.00,,,0.00,0,WeatherHawk,2013-04-14 12:03:00,
2013-04-14 05:08:00,63.9,51.0,29.65,ESE,119,12.0,17.0,63,0.00,,,0.00,0,WeatherHawk,2013-04-14 12:08:00,
2013-04-14 05:13:00,63.5,51.1,29.65,ESE,118,9.0,15.0,64,0.00,,,0.00,0,WeatherHawk,2013-04-14 12:13:00,
2013-04-14 05:15:00,63.3,50.9,29.65,ESE,121,12.0,15.0,64,0.00,,,0.00,0,WeatherHawk,2013-04-14 12:15:00,
2013-04-14 05:19:00,63.3,51.3,29.65,ESE,122,10.0,0.0,65,0.00,,,0.00,1,WeatherHawk,2013-04-14 12:19:00,
2013-04-14 05:21:00,63.3,51.3,29.65,SE,128,11.0,14.0,65,0.00,,,0.00,1,WeatherHawk,2013-04-14 12:21:00,
2013-04-14 05:24:00,63.3,51.3,29.65,ESE,122,11.0,14.0,65,0.00,,,0.00,0,WeatherHawk,2013-04-14 12:24:00,
2013-04-14 05:25:00,63.3,51.3,29.65,ESE,117,13.0,14.0,65,0.00,,,0.00,0,WeatherHawk,2013-04-14 12:25:00,
2013-04-14 05:26:00,63.3,51.3,29.65,ESE,121,10.0,14.0,65,0.00,,,0.00,0,WeatherHawk,2013-04-14 12:26:00,
2013-04-14 05:28:00,63.3,51.8,29.65,SE,127,15.0,-999.0,66,0.00,,,0.00,1,WeatherHawk,2013-04-14 12:28:00,
2013-04-14 05:29:00,63.3,51.8,29.66,SE,130,10.0,15.0,66,0.00,,,0.00,0,WeatherHawk,2013-04-14 12:29:00,
2013-04-14 05:31:00,63.1,51.6,29.65,SE,128,13.0,15.0,66,0.00,,,0.00,0,WeatherHawk,2013-04-14 12:31:00,
2013-04-14 05:33:00,63.1,51.6,29.65,SE,129,9.0,-999.0,66,0.00,,,0.00,0,WeatherHawk,2013-04-14 12:33:00,
2013-04-14 05:35:00,63.0,51.8,29.65,ESE,119,14.0,15.0,67,0.00,,,0.00,0,WeatherHawk,2013-04-14 12:35:00,
2013-04-14 05:38:00,63.0,51.8,29.66,ESE,118,12.0,15.0,67,0.00,,,0.00,0,WeatherHawk,2013-04-14 12:38:00,
2013-04-14 05:39:00,63.0,51.8,29.66,ESE,114,12.0,15.0,67,0.00,,,0.00,0,WeatherHawk,2013-04-14 12:39:00,
2013-04-14 05:43:00,62.8,51.7,29.66,ESE,117,11.0,15.0,67,0.00,,,0.00,0,WeatherHawk,2013-04-14 12:43:00,
2013-04-14 05:46:00,62.8,52.1,29.66,ESE,119,9.0,15.0,68,0.00,,,0.00,0,WeatherHawk,2013-04-14 12:46:00,
2013-04-14 05:48:00,62.6,51.9,29.66,ESE,113,8.0,-999.0,68,0.00,,,0.00,0,WeatherHawk,2013-04-14 12:48:00,
2013-04-14 05:49:00,62.6,51.9,29.66,ESE,119,9.0,0.0,68,0.00,,,0.00,0,WeatherHawk,2013-04-14 12:49:00,
2013-04-14 05:51:00,62.6,52.3,29.66,ESE,118,9.0,13.0,69,0.00,,,0.00,0,WeatherHawk,2013-04-14 12:51:00,
2013-04-14 05:53:00,62.6,52.3,29.66,SE,124,10.0,13.0,69,0.00,,,0.00,0,WeatherHawk,2013-04-14 12:53:00,
2013-04-14 05:57:00,62.6,52.3,29.66,ESE,122,13.0,13.0,69,0.00,,,0.00,1,WeatherHawk,2013-04-14 12:57:00,
2013-04-14 05:58:00,62.6,52.3,29.66,SE,125,11.0,-999.0,69,0.00,,,0.00,0,WeatherHawk,2013-04-14 12:58:00,
2013-04-14 06:00:00,62.4,52.1,29.66,ESE,118,10.0,14.0,69,0.00,,,0.00,1,WeatherHawk,2013-04-14 13:00:00,
2013-04-14 06:03:00,62.4,52.5,29.66,SE,124,10.0,14.0,70,0.00,,,0.00,3,WeatherHawk,2013-04-14 13:03:00,
2013-04-14 06:05:00,62.4,52.5,29.66,ESE,122,11.0,14.0,70,0.00,,,0.00,3,WeatherHawk,2013-04-14 13:05:00,
2013-04-14 06:08:00,62.4,52.5,29.66,SE,126,10.0,14.0,70,0.00,,,0.00,4,WeatherHawk,2013-04-14 13:08:00,
2013-04-14 06:10:00,62.4,52.5,29.66,ESE,121,12.0,14.0,70,0.00,,,0.00,5,WeatherHawk,2013-04-14 13:10:00,
2013-04-14 06:13:00,62.6,52.7,29.66,ESE,116,12.0,14.0,70,0.00,,,0.00,7,WeatherHawk,2013-04-14 13:13:00,
2013-04-14 06:16:00,62.8,52.8,29.66,SE,127,15.0,15.0,70,0.00,,,0.00,13,WeatherHawk,2013-04-14 13:16:00,
2013-04-14 06:17:00,62.8,52.8,29.67,SE,133,10.0,14.0,70,0.00,,,0.00,14,WeatherHawk,2013-04-14 13:17:00,
2013-04-14 06:22:00,62.8,53.2,29.67,ESE,119,12.0,15.0,71,0.00,,,0.00,24,WeatherHawk,2013-04-14 13:22:00,
2013-04-14 06:23:00,62.8,53.2,29.67,ESE,119,11.0,15.0,71,0.00,,,0.00,29,WeatherHawk,2013-04-14 13:23:00,
2013-04-14 06:28:00,62.8,53.2,29.67,ESE,118,9.0,-999.0,71,0.00,,,0.00,38,WeatherHawk,2013-04-14 13:28:00,
2013-04-14 06:32:00,62.8,53.2,29.67,ESE,119,9.0,14.0,71,0.00,,,0.00,49,WeatherHawk,2013-04-14 13:32:00,
2013-04-14 06:33:00,62.8,53.2,29.67,ESE,122,13.0,-999.0,71,0.00,,,0.00,54,WeatherHawk,2013-04-14 13:33:00,
2013-04-14 06:38:00,63.0,53.4,29.67,ESE,112,12.0,-999.0,71,0.00,,,0.00,67,WeatherHawk,2013-04-14 13:38:00,
2013-04-14 06:39:00,63.1,53.6,29.67,SE,125,11.0,0.0,71,0.00,,,0.00,68,WeatherHawk,2013-04-14 13:39:00,
2013-04-14 06:42:00,63.1,53.6,29.67,ESE,123,12.0,14.0,71,0.00,,,0.00,80,WeatherHawk,2013-04-14 13:42:00,
2013-04-14 06:43:00,63.1,53.6,29.67,ESE,119,11.0,-999.0,71,0.00,,,0.00,82,WeatherHawk,2013-04-14 13:43:00,
2013-04-14 06:47:00,63.3,53.8,29.67,ESE,121,11.0,14.0,71,0.00,,,0.00,94,WeatherHawk,2013-04-14 13:47:00,
2013-04-14 06:48:00,63.3,53.8,29.67,ESE,121,11.0,14.0,71,0.00,,,0.00,94,WeatherHawk,2013-04-14 13:48:00,
2013-04-14 06:49:00,63.3,53.8,29.67,SE,124,13.0,0.0,71,0.00,,,0.00,97,WeatherHawk,2013-04-14 13:49:00,
2013-04-14 06:51:00,63.5,53.9,29.68,ESE,119,11.0,14.0,71,0.00,,,0.00,106,WeatherHawk,2013-04-14 13:51:00,
2013-04-14 06:53:00,63.5,53.9,29.68,ESE,122,11.0,14.0,71,0.00,,,0.00,110,WeatherHawk,2013-04-14 13:53:00,
2013-04-14 06:58:00,63.7,53.7,29.68,ESE,122,10.0,14.0,70,0.00,,,0.00,125,WeatherHawk,2013-04-14 13:58:00,
2013-04-14 06:59:00,63.7,53.7,29.68,ESE,118,9.0,14.0,70,0.00,,,0.00,130,WeatherHawk,2013-04-14 13:59:00,
2013-04-14 07:03:00,63.7,53.7,29.68,ESE,123,14.0,14.0,70,0.00,,,0.00,143,WeatherHawk,2013-04-14 14:03:00,
2013-04-14 07:07:00,63.9,53.9,29.68,SE,125,10.0,14.0,70,0.00,,,0.00,157,WeatherHawk,2013-04-14 14:07:00,
2013-04-14 07:08:00,63.9,53.9,29.68,SE,125,10.0,14.0,70,0.00,,,0.00,157,WeatherHawk,2013-04-14 14:08:00,
2013-04-14 07:09:00,64.0,54.1,29.68,ESE,120,12.0,15.0,70,0.00,,,0.00,163,WeatherHawk,2013-04-14 14:09:00,
2013-04-14 07:13:00,64.2,54.2,29.68,ESE,114,12.0,15.0,70,0.00,,,0.00,176,WeatherHawk,2013-04-14 14:13:00,
2013-04-14 07:14:00,64.2,54.2,29.68,SE,127,10.0,15.0,70,0.00,,,0.00,180,WeatherHawk,2013-04-14 14:14:00,
2013-04-14 07:18:00,64.4,54.0,29.68,SE,127,11.0,15.0,69,0.00,,,0.00,196,WeatherHawk,2013-04-14 14:18:00,
2013-04-14 07:20:00,64.6,54.2,29.68,ESE,116,9.0,14.0,69,0.00,,,0.00,201,WeatherHawk,2013-04-14 14:20:00,
2013-04-14 07:23:00,64.8,54.3,29.68,ESE,123,15.0,15.0,69,0.00,,,0.00,213,WeatherHawk,2013-04-14 14:23:00,
2013-04-14 07:24:00,64.8,54.3,29.68,ESE,122,13.0,14.0,69,0.00,,,0.00,215,WeatherHawk,2013-04-14 14:24:00,
2013-04-14 07:25:00,64.8,54.3,29.68,SE,125,12.0,14.0,69,0.00,,,0.00,219,WeatherHawk,2013-04-14 14:25:00,
2013-04-14 07:28:00,64.9,54.5,29.68,SE,124,12.0,14.0,69,0.00,,,0.00,227,WeatherHawk,2013-04-14 14:28:00,
2013-04-14 07:29:00,65.1,54.3,29.68,SE,127,12.0,0.0,68,0.00,,,0.00,231,WeatherHawk,2013-04-14 14:29:00,
2013-04-14 07:32:00,65.3,54.5,29.68,ESE,117,11.0,15.0,68,0.00,,,0.00,242,WeatherHawk,2013-04-14 14:32:00,
2013-04-14 07:35:00,65.5,54.2,29.68,ESE,122,13.0,15.0,67,0.00,,,0.00,255,WeatherHawk,2013-04-14 14:35:00,
2013-04-14 07:37:00,65.7,54.4,29.68,ESE,114,9.0,15.0,67,0.00,,,0.00,264,WeatherHawk,2013-04-14 14:37:00,
2013-04-14 07:38:00,65.7,54.4,29.68,ESE,114,9.0,-999.0,67,0.00,,,0.00,264,WeatherHawk,2013-04-14 14:38:00,
2013-04-14 07:42:00,66.0,54.3,29.68,ESE,118,15.0,16.0,66,0.00,,,0.00,280,WeatherHawk,2013-04-14 14:42:00,
2013-04-14 07:43:00,66.0,54.3,29.68,SE,129,15.0,16.0,66,0.00,,,0.00,283,WeatherHawk,2013-04-14 14:43:00,
2013-04-14 07:48:00,66.4,54.2,29.68,ESE,121,12.0,16.0,65,0.00,,,0.00,303,WeatherHawk,2013-04-14 14:48:00,
2013-04-14 07:50:00,66.7,54.2,29.69,SE,124,13.0,17.0,64,0.00,,,0.00,311,WeatherHawk,2013-04-14 14:50:00,
2013-04-14 07:53:00,66.9,54.3,29.69,SE,136,13.0,17.0,64,0.00,,,0.00,319,WeatherHawk,2013-04-14 14:53:00,
2013-04-14 07:57:00,67.3,54.2,29.69,SE,132,14.0,17.0,63,0.00,,,0.00,335,WeatherHawk,2013-04-14 14:57:00,
2013-04-14 07:58:00,67.3,54.2,29.69,SE,132,14.0,17.0,63,0.00,,,0.00,335,WeatherHawk,2013-04-14 14:58:00,
2013-04-14 08:00:00,67.6,54.1,29.68,SE,126,16.0,16.0,62,0.00,,,0.00,346,WeatherHawk,2013-04-14 15:00:00,
2013-04-14 08:03:00,67.6,54.1,29.69,SE,126,14.0,-999.0,62,0.00,,,0.00,352,WeatherHawk,2013-04-14 15:03:00,
2013-04-14 08:08:00,68.0,54.0,29.69,SE,131,12.0,15.0,61,0.00,,,0.00,374,WeatherHawk,2013-04-14 15:08:00,
2013-04-14 08:09:00,68.2,54.2,29.69,SE,130,14.0,18.0,61,0.00,,,0.00,382,WeatherHawk,2013-04-14 15:09:00,
2013-04-14 08:10:00,68.4,53.9,29.69,ESE,119,14.0,18.0,60,0.00,,,0.00,387,WeatherHawk,2013-04-14 15:10:00,
2013-04-14 08:12:00,68.4,53.9,29.69,SE,132,14.0,18.0,60,0.00,,,0.00,393,WeatherHawk,2013-04-14 15:12:00,
2013-04-14 08:13:00,68.4,53.5,29.69,SE,134,15.0,18.0,59,0.00,,,0.00,394,WeatherHawk,2013-04-14 15:13:00,
2013-04-14 08:18:00,68.9,53.5,29.69,SE,124,12.0,18.0,58,0.00,,,0.00,417,WeatherHawk,2013-04-14 15:18:00,
2013-04-14 08:21:00,69.1,53.7,29.69,ESE,120,8.0,17.0,58,0.00,,,0.00,428,WeatherHawk,2013-04-14 15:21:00,
2013-04-14 08:23:00,69.3,53.8,29.69,ESE,122,16.0,-999.0,58,0.00,,,0.00,435,WeatherHawk,2013-04-14 15:23:00,
2013-04-14 08:24:00,69.4,54.0,29.69,ESE,120,12.0,17.0,58,0.00,,,0.00,437,WeatherHawk,2013-04-14 15:24:00,
2013-04-14 08:30:00,70.0,53.6,29.69,ESE,113,12.0,16.0,56,0.00,,,0.00,460,WeatherHawk,2013-04-14 15:30:00,
2013-04-14 08:32:00,70.0,53.1,29.69,ESE,117,15.0,16.0,55,0.00,,,0.00,469,WeatherHawk,2013-04-14 15:32:00,
2013-04-14 08:33:00,70.0,53.1,29.69,ESE,117,15.0,16.0,55,0.00,,,0.00,469,WeatherHawk,2013-04-14 15:33:00,
2013-04-14 08:37:00,70.5,53.1,29.69,SE,139,14.0,16.0,54,0.00,,,0.00,485,WeatherHawk,2013-04-14 15:37:00,
2013-04-14 08:38:00,70.7,52.7,29.69,SE,136,13.0,16.0,53,0.00,,,0.00,492,WeatherHawk,2013-04-14 15:38:00,
2013-04-14 08:43:00,70.7,52.7,29.70,SE,136,14.0,15.0,53,0.00,,,0.00,510,WeatherHawk,2013-04-14 15:43:00,
2013-04-14 08:44:00,70.7,52.7,29.70,SE,130,12.0,15.0,53,0.00,,,0.00,516,WeatherHawk,2013-04-14 15:44:00,
2013-04-14 08:48:00,71.2,52.7,29.70,SE,124,9.0,15.0,52,0.00,,,0.00,529,WeatherHawk,2013-04-14 15:48:00,
2013-04-14 08:49:00,71.6,52.5,29.70,ESE,120,12.0,16.0,51,0.00,,,0.00,533,WeatherHawk,2013-04-14 15:49:00,
2013-04-14 08:52:00,71.6,52.5,29.70,ESE,110,9.0,16.0,51,0.00,,,0.00,544,WeatherHawk,2013-04-14 15:52:00,
2013-04-14 08:55:00,72.0,52.3,29.70,SE,139,14.0,16.0,50,0.00,,,0.00,554,WeatherHawk,2013-04-14 15:55:00,
2013-04-14 08:58:00,72.0,52.3,29.70,SSE,161,14.0,16.0,50,0.00,,,0.00,564,WeatherHawk,2013-04-14 15:58:00,
2013-04-14 09:00:00,72.0,51.7,29.70,ESE,121,12.0,15.0,49,0.00,,,0.00,576,WeatherHawk,2013-04-14 16:00:00,
2013-04-14 09:03:00,72.1,51.9,29.70,SE,143,8.0,15.0,49,0.00,,,0.00,586,WeatherHawk,2013-04-14 16:03:00,
2013-04-14 09:08:00,72.7,51.8,29.70,SE,142,10.0,15.0,48,0.00,,,0.00,602,WeatherHawk,2013-04-14 16:08:00,
2013-04-14 09:10:00,72.7,51.3,29.70,SSE,150,11.0,15.0,47,0.00,,,0.00,607,WeatherHawk,2013-04-14 16:10:00,
2013-04-14 09:11:00,72.7,51.8,29.70,SSE,154,12.0,15.0,48,0.00,,,0.00,612,WeatherHawk,2013-04-14 16:11:00,
2013-04-14 09:15:00,73.0,51.6,29.70,SE,135,10.0,15.0,47,0.00,,,0.00,626,WeatherHawk,2013-04-14 16:15:00,
2013-04-14 09:16:00,73.0,51.6,29.70,SSE,150,11.0,15.0,47,0.00,,,0.00,631,WeatherHawk,2013-04-14 16:16:00,
2013-04-14 09:18:00,73.0,51.0,29.70,SE,137,10.0,15.0,46,0.00,,,0.00,638,WeatherHawk,2013-04-14 16:18:00,
2013-04-14 09:22:00,73.6,50.9,29.70,SE,126,9.0,14.0,45,0.00,,,0.00,648,WeatherHawk,2013-04-14 16:22:00,
2013-04-14 09:23:00,73.6,50.9,29.70,SE,126,9.0,14.0,45,0.00,,,0.00,648,WeatherHawk,2013-04-14 16:23:00,
2013-04-14 09:26:00,73.8,51.7,29.70,South,171,10.0,14.0,46,0.00,,,0.00,663,WeatherHawk,2013-04-14 16:26:00,
2013-04-14 09:28:00,73.8,51.1,29.70,SE,143,10.0,-999.0,45,0.00,,,0.00,662,WeatherHawk,2013-04-14 16:28:00,
2013-04-14 09:30:00,74.3,51.0,29.71,SSE,150,11.0,13.0,44,0.00,,,0.00,679,WeatherHawk,2013-04-14 16:30:00,
2013-04-14 09:31:00,74.3,51.0,29.71,South,171,11.0,13.0,44,0.00,,,0.00,681,WeatherHawk,2013-04-14 16:31:00,
2013-04-14 09:33:00,74.5,51.1,29.71,SE,139,10.0,-999.0,44,0.00,,,0.00,683,WeatherHawk,2013-04-14 16:33:00,
2013-04-14 09:38:00,74.5,50.5,29.71,SSE,147,9.0,-999.0,43,0.00,,,0.00,700,WeatherHawk,2013-04-14 16:38:00,
2013-04-14 09:41:00,74.8,50.8,29.70,SSE,153,14.0,14.0,43,0.00,,,0.00,712,WeatherHawk,2013-04-14 16:41:00,
2013-04-14 09:44:00,74.5,50.5,29.71,SSE,151,9.0,14.0,43,0.00,,,0.00,721,WeatherHawk,2013-04-14 16:44:00,
2013-04-14 09:46:00,74.7,50.7,29.71,SSE,164,9.0,14.0,43,0.00,,,0.00,729,WeatherHawk,2013-04-14 16:46:00,
2013-04-14 09:48:00,74.8,50.8,29.71,SSE,159,9.0,14.0,43,0.00,,,0.00,730,WeatherHawk,2013-04-14 16:48:00,
2013-04-14 09:49:00,75.4,50.0,29.71,South,186,10.0,0.0,41,0.00,,,0.00,738,WeatherHawk,2013-04-14 16:49:00,
2013-04-14 09:50:00,75.6,50.2,29.71,South,170,8.0,14.0,41,0.00,,,0.00,741,WeatherHawk,2013-04-14 16:50:00,
2013-04-14 09:52:00,75.4,50.0,29.71,South,181,9.0,14.0,41,0.00,,,0.00,744,WeatherHawk,2013-04-14 16:52:00,
2013-04-14 09:55:00,75.7,51.0,29.70,SSE,168,11.0,14.0,42,0.00,,,0.00,744,WeatherHawk,2013-04-14 16:55:00,
2013-04-14 09:56:00,75.7,51.0,29.70,SSE,151,9.0,14.0,42,0.00,,,0.00,754,WeatherHawk,2013-04-14 16:56:00,
2013-04-14 09:59:00,75.9,49.8,29.70,South,185,13.0,13.0,40,0.00,,,0.00,765,WeatherHawk,2013-04-14 16:59:00,
2013-04-14 10:02:00,76.1,50.0,29.70,SSE,166,8.0,12.0,40,0.00,,,0.00,775,WeatherHawk,2013-04-14 17:02:00,
2013-04-14 10:04:00,76.3,48.8,29.70,SSE,155,11.0,12.0,38,0.00,,,0.00,783,WeatherHawk,2013-04-14 17:04:00,
2013-04-14 10:05:00,76.1,49.3,29.70,SSE,150,8.0,12.0,39,0.00,,,0.00,785,WeatherHawk,2013-04-14 17:05:00,
2013-04-14 10:07:00,76.1,49.3,29.70,SE,134,10.0,12.0,39,0.00,,,0.00,792,WeatherHawk,2013-04-14 17:07:00,
2013-04-14 10:10:00,76.3,48.8,29.70,South,173,13.0,16.0,38,0.00,,,0.00,799,WeatherHawk,2013-04-14 17:10:00,
2013-04-14 10:12:00,76.5,48.9,29.70,SE,145,9.0,16.0,38,0.00,,,0.00,804,WeatherHawk,2013-04-14 17:12:00,
2013-04-14 10:13:00,76.5,48.9,29.70,South,172,7.0,-999.0,38,0.00,,,0.00,810,WeatherHawk,2013-04-14 17:13:00,
2013-04-14 10:14:00,76.6,49.1,29.70,SSE,151,11.0,16.0,38,0.00,,,0.00,800,WeatherHawk,2013-04-14 17:14:00,
2013-04-14 10:18:00,76.6,47.7,29.70,SSE,153,8.0,16.0,36,0.00,,,0.00,819,WeatherHawk,2013-04-14 17:18:00,
2013-04-14 10:19:00,76.6,47.7,29.70,South,177,8.0,14.0,36,0.00,,,0.00,822,WeatherHawk,2013-04-14 17:19:00,
2013-04-14 10:21:00,77.4,47.5,29.70,South,182,11.0,14.0,35,0.00,,,0.00,827,WeatherHawk,2013-04-14 17:21:00,
2013-04-14 10:23:00,77.5,47.7,29.71,South,182,7.0,-999.0,35,0.00,,,0.00,826,WeatherHawk,2013-04-14 17:23:00,
2013-04-14 10:24:00,77.7,47.9,29.70,South,170,14.0,14.0,35,0.00,,,0.00,831,WeatherHawk,2013-04-14 17:24:00,
2013-04-14 10:26:00,77.7,47.1,29.70,South,171,9.0,14.0,34,0.00,,,0.00,840,WeatherHawk,2013-04-14 17:26:00,
2013-04-14 10:30:00,78.1,46.6,29.70,South,179,10.0,16.0,33,0.00,,,0.00,845,WeatherHawk,2013-04-14 17:30:00,
2013-04-14 10:32:00,78.3,46.8,29.70,South,180,10.0,16.0,33,0.00,,,0.00,852,WeatherHawk,2013-04-14 17:32:00,
2013-04-14 10:33:00,78.4,46.9,29.70,South,171,10.0,-999.0,33,0.00,,,0.00,855,WeatherHawk,2013-04-14 17:33:00,
2013-04-14 10:35:00,78.6,46.3,29.70,South,171,11.0,16.0,32,0.00,,,0.00,863,WeatherHawk,2013-04-14 17:35:00,
2013-04-14 10:36:00,78.8,46.4,29.70,South,175,8.0,16.0,32,0.00,,,0.00,863,WeatherHawk,2013-04-14 17:36:00,
2013-04-14 10:38:00,78.6,45.4,29.70,SSW,205,9.0,0.0,31,0.00,,,0.00,872,WeatherHawk,2013-04-14 17:38:00,
2013-04-14 10:42:00,78.8,44.7,29.70,SSW,209,13.0,14.0,30,0.00,,,0.00,879,WeatherHawk,2013-04-14 17:42:00,
2013-04-14 10:44:00,78.8,43.8,29.70,South,171,10.0,14.0,29,0.00,,,0.00,887,WeatherHawk,2013-04-14 17:44:00,
2013-04-14 10:48:00,78.8,44.7,29.70,South,183,6.0,14.0,30,0.00,,,0.00,890,WeatherHawk,2013-04-14 17:48:00,
2013-04-14 10:49:00,78.8,44.7,29.70,South,189,8.0,13.0,30,0.00,,,0.00,891,WeatherHawk,2013-04-14 17:49:00,
2013-04-14 10:56:00,79.0,45.7,29.70,SSW,211,8.0,13.0,31,0.00,,,0.00,909,WeatherHawk,2013-04-14 17:56:00,
2013-04-14 10:59:00,79.2,44.1,29.70,South,191,6.0,12.0,29,0.00,,,0.00,914,WeatherHawk,2013-04-14 17:59:00,
2013-04-14 11:01:00,79.0,44.9,29.70,SW,233,5.0,12.0,30,0.00,,,0.00,917,WeatherHawk,2013-04-14 18:01:00,
2013-04-14 11:02:00,78.8,44.7,29.70,SSE,166,6.0,12.0,30,0.00,,,0.00,919,WeatherHawk,2013-04-14 18:02:00,
2013-04-14 11:03:00,78.8,44.7,29.70,SSE,166,6.0,12.0,30,0.00,,,0.00,919,WeatherHawk,2013-04-14 18:03:00,
2013-04-14 11:07:00,79.5,42.6,29.70,SSW,206,7.0,12.0,27,0.00,,,0.00,929,WeatherHawk,2013-04-14 18:07:00,
2013-04-14 11:08:00,79.5,42.6,29.70,SSW,206,7.0,12.0,27,0.00,,,0.00,929,WeatherHawk,2013-04-14 18:08:00,
2013-04-14 11:10:00,79.5,44.5,29.70,South,174,11.0,12.0,29,0.00,,,0.00,936,WeatherHawk,2013-04-14 18:10:00,
2013-04-14 11:13:00,79.2,45.0,29.70,SSE,167,6.0,12.0,30,0.00,,,0.00,936,WeatherHawk,2013-04-14 18:13:00,
2013-04-14 11:14:00,79.3,45.2,29.70,South,185,6.0,12.0,30,0.00,,,0.00,942,WeatherHawk,2013-04-14 18:14:00,
2013-04-14 11:18:00,79.7,43.7,29.70,SSE,160,9.0,12.0,28,0.00,,,0.00,949,WeatherHawk,2013-04-14 18:18:00,
2013-04-14 11:19:00,80.4,44.3,29.69,South,177,12.0,15.0,28,0.00,,,0.00,951,WeatherHawk,2013-04-14 18:19:00,
2013-04-14 11:23:00,80.4,44.3,29.69,SSW,203,9.0,15.0,28,0.00,,,0.00,947,WeatherHawk,2013-04-14 18:23:00,
2013-04-14 11:25:00,80.4,45.2,29.69,SSW,199,7.0,15.0,29,0.00,,,0.00,958,WeatherHawk,2013-04-14 18:25:00,
2013-04-14 11:28:00,80.2,45.1,29.69,SSW,213,8.0,15.0,29,0.00,,,0.00,966,WeatherHawk,2013-04-14 18:28:00,
2013-04-14 11:29:00,80.1,44.0,29.69,South,184,10.0,14.0,28,0.00,,,0.00,966,WeatherHawk,2013-04-14 18:29:00,
2013-04-14 11:30:00,80.2,44.1,29.69,South,187,7.0,14.0,28,0.00,,,0.00,966,WeatherHawk,2013-04-14 18:30:00,
2013-04-14 11:33:00,80.2,44.1,29.69,SSE,150,6.0,14.0,28,0.00,,,0.00,972,WeatherHawk,2013-04-14 18:33:00,
2013-04-14 11:36:00,81.0,44.8,29.69,South,182,11.0,14.0,28,0.00,,,0.00,976,WeatherHawk,2013-04-14 18:36:00,
2013-04-14 11:38:00,80.6,44.5,29.69,SE,145,10.0,14.0,28,0.00,,,0.00,979,WeatherHawk,2013-04-14 18:38:00,
2013-04-14 11:40:00,80.6,45.4,29.69,SSE,165,6.0,12.0,29,0.00,,,0.00,977,WeatherHawk,2013-04-14 18:40:00,
2013-04-14 11:45:00,81.5,42.3,29.69,South,185,8.0,12.0,25,0.00,,,0.00,988,WeatherHawk,2013-04-14 18:45:00,
2013-04-14 11:46:00,81.5,42.3,29.69,SSW,211,7.0,12.0,25,0.00,,,0.00,990,WeatherHawk,2013-04-14 18:46:00,
2013-04-14 11:47:00,81.3,41.1,29.69,SSW,212,6.0,12.0,24,0.00,,,0.00,987,WeatherHawk,2013-04-14 18:47:00,
2013-04-14 11:48:00,81.3,42.1,29.69,SW,214,6.0,12.0,25,0.00,,,0.00,993,WeatherHawk,2013-04-14 18:48:00,
2013-04-14 11:51:00,82.4,45.0,29.68,South,187,9.0,12.0,27,0.00,,,0.00,997,WeatherHawk,2013-04-14 18:51:00,
2013-04-14 11:52:00,82.6,44.2,29.68,South,176,12.0,12.0,26,0.00,,,0.00,995,WeatherHawk,2013-04-14 18:52:00,
2013-04-14 11:53:00,82.6,44.2,29.68,South,178,11.0,12.0,26,0.00,,,0.00,997,WeatherHawk,2013-04-14 18:53:00,
2013-04-14 11:55:00,81.7,43.4,29.68,South,174,8.0,12.0,26,0.00,,,0.00,997,WeatherHawk,2013-04-14 18:55:00,
2013-04-14 11:59:00,81.5,43.3,29.68,South,174,11.0,14.0,26,0.00,,,0.00,995,WeatherHawk,2013-04-14 18:59:00,
2013-04-14 12:00:00,81.7,43.4,29.68,South,177,14.0,14.0,26,0.00,,,0.00,1001,WeatherHawk,2013-04-14 19:00:00,
2013-04-14 12:02:00,81.7,43.4,29.68,SSE,158,10.0,14.0,26,0.00,,,0.00,1004,WeatherHawk,2013-04-14 19:02:00,
2013-04-14 12:07:00,81.9,43.6,29.68,SSE,167,5.0,14.0,26,0.00,,,0.00,1004,WeatherHawk,2013-04-14 19:07:00,
2013-04-14 12:08:00,81.9,43.6,29.68,SSE,167,5.0,14.0,26,0.00,,,0.00,1004,WeatherHawk,2013-04-14 19:08:00,
2013-04-14 12:13:00,82.4,43.0,29.67,SSE,162,13.0,15.0,25,0.00,,,0.00,1009,WeatherHawk,2013-04-14 19:13:00,
2013-04-14 12:14:00,82.4,43.0,29.67,South,186,11.0,15.0,25,0.00,,,0.00,1012,WeatherHawk,2013-04-14 19:14:00,
2013-04-14 12:15:00,82.2,42.9,29.67,South,181,13.0,15.0,25,0.00,,,0.00,1016,WeatherHawk,2013-04-14 19:15:00,
2013-04-14 12:16:00,82.8,43.3,29.67,South,183,9.0,15.0,25,0.00,,,0.00,1015,WeatherHawk,2013-04-14 19:16:00,
2013-04-14 12:20:00,83.1,42.6,29.67,SSW,196,13.0,13.0,24,0.00,,,0.00,1016,WeatherHawk,2013-04-14 19:20:00,
2013-04-14 12:22:00,83.7,41.9,29.67,South,190,8.0,13.0,23,0.00,,,0.00,1022,WeatherHawk,2013-04-14 19:22:00,
2013-04-14 12:23:00,84.0,42.2,29.67,SSW,206,11.0,13.0,23,0.00,,,0.00,1019,WeatherHawk,2013-04-14 19:23:00,
2013-04-14 12:27:00,82.9,41.3,29.67,SE,141,5.0,13.0,23,0.00,,,0.00,1019,WeatherHawk,2013-04-14 19:27:00,
2013-04-14 12:28:00,83.1,42.6,29.67,South,182,13.0,0.0,24,0.00,,,0.00,1018,WeatherHawk,2013-04-14 19:28:00,
2013-04-14 12:29:00,83.5,41.8,29.67,South,189,9.0,14.0,23,0.00,,,0.00,1020,WeatherHawk,2013-04-14 19:29:00,
2013-04-14 12:33:00,82.9,41.3,29.67,SSW,193,11.0,14.0,23,0.00,,,0.00,1026,WeatherHawk,2013-04-14 19:33:00,
2013-04-14 12:34:00,83.3,41.6,29.67,SW,218,9.0,14.0,23,0.00,,,0.00,1024,WeatherHawk,2013-04-14 19:34:00,
2013-04-14 12:35:00,83.5,40.6,29.67,SSE,160,9.0,14.0,22,0.00,,,0.00,1025,WeatherHawk,2013-04-14 19:35:00,
2013-04-14 12:36:00,83.5,40.6,29.67,SSE,166,9.0,14.0,22,0.00,,,0.00,1026,WeatherHawk,2013-04-14 19:36:00,
2013-04-14 12:40:00,83.7,41.9,29.67,SSE,159,4.0,14.0,23,0.00,,,0.00,1019,WeatherHawk,2013-04-14 19:40:00,
2013-04-14 12:41:00,83.7,41.9,29.66,SE,140,14.0,14.0,23,0.00,,,0.00,1017,WeatherHawk,2013-04-14 19:41:00,
2013-04-14 12:43:00,83.1,41.5,29.66,SE,145,8.0,14.0,23,0.00,,,0.00,1021,WeatherHawk,2013-04-14 19:43:00,
2013-04-14 12:45:00,83.1,41.5,29.66,SSW,205,4.0,14.0,23,0.00,,,0.00,1019,WeatherHawk,2013-04-14 19:45:00,
2013-04-14 12:47:00,83.7,41.9,29.66,SE,124,8.0,14.0,23,0.00,,,0.00,1017,WeatherHawk,2013-04-14 19:47:00,
2013-04-14 12:48:00,83.7,41.9,29.66,SE,124,8.0,14.0,23,0.00,,,0.00,1017,WeatherHawk,2013-04-14 19:48:00,
2013-04-14 12:49:00,84.0,41.1,29.66,SSW,213,10.0,14.0,22,0.00,,,0.00,1021,WeatherHawk,2013-04-14 19:49:00,
2013-04-14 12:51:00,84.4,41.4,29.66,SSW,204,11.0,14.0,22,0.00,,,0.00,1018,WeatherHawk,2013-04-14 19:51:00,
2013-04-14 12:52:00,84.4,42.5,29.66,SSW,195,9.0,14.0,23,0.00,,,0.00,1023,WeatherHawk,2013-04-14 19:52:00,
2013-04-14 12:55:00,84.4,40.2,29.66,South,178,10.0,14.0,21,0.00,,,0.00,1025,WeatherHawk,2013-04-14 19:55:00,
2013-04-14 12:57:00,84.0,39.9,29.66,SSE,168,7.0,14.0,21,0.00,,,0.00,1019,WeatherHawk,2013-04-14 19:57:00,
2013-04-14 12:58:00,84.2,40.0,29.66,SW,217,4.0,-999.0,21,0.00,,,0.00,1013,WeatherHawk,2013-04-14 19:58:00,
2013-04-14 13:00:00,84.7,41.7,29.66,SE,139,6.0,16.0,22,0.00,,,0.00,1019,WeatherHawk,2013-04-14 20:00:00,
2013-04-14 13:01:00,84.6,41.5,29.66,SSE,163,4.0,16.0,22,0.00,,,0.00,1019,WeatherHawk,2013-04-14 20:01:00,
2013-04-14 13:03:00,84.4,41.4,29.66,South,177,4.0,16.0,22,0.00,,,0.00,1020,WeatherHawk,2013-04-14 20:03:00,
2013-04-14 13:08:00,84.9,41.8,29.65,SE,132,12.0,-999.0,22,0.00,,,0.00,1013,WeatherHawk,2013-04-14 20:08:00,
2013-04-14 13:09:00,84.6,41.5,29.65,SE,143,7.0,12.0,22,0.00,,,0.00,1012,WeatherHawk,2013-04-14 20:09:00,
2013-04-14 13:13:00,85.1,40.7,29.65,South,181,11.0,12.0,21,0.00,,,0.00,1012,WeatherHawk,2013-04-14 20:13:00,
2013-04-14 13:14:00,85.1,40.7,29.65,South,176,8.0,12.0,21,0.00,,,0.00,1007,WeatherHawk,2013-04-14 20:14:00,
2013-04-14 13:15:00,85.1,40.7,29.65,SSW,197,9.0,12.0,21,0.00,,,0.00,1008,WeatherHawk,2013-04-14 20:15:00,
2013-04-14 13:18:00,85.1,42.0,29.65,SSE,166,6.0,-999.0,22,0.00,,,0.00,1011,WeatherHawk,2013-04-14 20:18:00,
2013-04-14 13:20:00,85.1,42.0,29.65,South,171,11.0,12.0,22,0.00,,,0.00,1009,WeatherHawk,2013-04-14 20:20:00,
2013-04-14 13:22:00,85.5,41.0,29.65,South,185,8.0,12.0,21,0.00,,,0.00,1002,WeatherHawk,2013-04-14 20:22:00,
2013-04-14 13:23:00,85.5,41.0,29.65,South,185,8.0,-999.0,21,0.00,,,0.00,1002,WeatherHawk,2013-04-14 20:23:00,
2013-04-14 13:26:00,85.3,42.1,29.65,ESE,119,9.0,12.0,22,0.00,,,0.00,995,WeatherHawk,2013-04-14 20:26:00,
2013-04-14 13:27:00,85.3,42.1,29.65,SE,124,7.0,12.0,22,0.00,,,0.00,997,WeatherHawk,2013-04-14 20:27:00,
2013-04-14 13:28:00,85.1,42.0,29.65,South,178,11.0,12.0,22,0.00,,,0.00,997,WeatherHawk,2013-04-14 20:28:00,
2013-04-14 13:30:00,85.6,41.2,29.65,South,174,15.0,15.0,21,0.00,,,0.00,997,WeatherHawk,2013-04-14 20:30:00,
2013-04-14 13:33:00,86.5,40.7,29.65,SSW,204,8.0,-999.0,20,0.00,,,0.00,994,WeatherHawk,2013-04-14 20:33:00,
2013-04-14 13:35:00,86.7,40.8,29.64,South,174,13.0,13.0,20,0.00,,,0.00,991,WeatherHawk,2013-04-14 20:35:00,
2013-04-14 13:38:00,86.0,41.5,29.65,SSE,155,7.0,-999.0,21,0.00,,,0.00,982,WeatherHawk,2013-04-14 20:38:00,
2013-04-14 13:39:00,85.6,42.4,29.64,South,181,6.0,16.0,22,0.00,,,0.00,985,WeatherHawk,2013-04-14 20:39:00,
2013-04-14 13:41:00,86.0,42.7,29.64,South,174,8.0,16.0,22,0.00,,,0.00,987,WeatherHawk,2013-04-14 20:41:00,
2013-04-14 13:44:00,86.5,40.7,29.64,SSW,206,11.0,16.0,20,0.00,,,0.00,982,WeatherHawk,2013-04-14 20:44:00,
2013-04-14 13:45:00,86.4,40.5,29.64,South,191,9.0,16.0,20,0.00,,,0.00,975,WeatherHawk,2013-04-14 20:45:00,
2013-04-14 13:50:00,85.8,40.1,29.64,SSW,201,3.0,14.0,20,0.00,,,0.00,974,WeatherHawk,2013-04-14 20:50:00,
2013-04-14 13:51:00,86.0,41.5,29.64,South,188,9.0,14.0,21,0.00,,,0.00,971,WeatherHawk,2013-04-14 20:51:00,
2013-04-14 13:53:00,86.7,40.8,29.64,South,169,11.0,14.0,20,0.00,,,0.00,967,WeatherHawk,2013-04-14 20:53:00,
2013-04-14 13:58:00,86.2,40.4,29.64,South,174,12.0,14.0,20,0.00,,,0.00,958,WeatherHawk,2013-04-14 20:58:00,
2013-04-14 13:59:00,86.5,40.7,29.64,South,182,12.0,18.0,20,0.00,,,0.00,956,WeatherHawk,2013-04-14 20:59:00,
2013-04-14 14:00:00,86.9,41.0,29.64,SSW,212,13.0,18.0,20,0.00,,,0.00,955,WeatherHawk,2013-04-14 21:00:00,
2013-04-14 14:03:00,86.7,40.8,29.64,SSW,206,11.0,18.0,20,0.00,,,0.00,957,WeatherHawk,2013-04-14 21:03:00,
2013-04-14 14:05:00,86.5,40.7,29.63,SSE,154,11.0,18.0,20,0.00,,,0.00,949,WeatherHawk,2013-04-14 21:05:00,
2013-04-14 14:09:00,85.8,40.1,29.63,SSE,162,6.0,15.0,20,0.00,,,0.00,941,WeatherHawk,2013-04-14 21:09:00,
2013-04-14 14:10:00,85.8,40.1,29.63,SSE,151,10.0,15.0,20,0.00,,,0.00,944,WeatherHawk,2013-04-14 21:10:00,
2013-04-14 14:13:00,86.2,40.4,29.63,South,190,6.0,15.0,20,0.00,,,0.00,940,WeatherHawk,2013-04-14 21:13:00,
2013-04-14 14:18:00,86.9,39.6,29.63,South,184,14.0,15.0,19,0.00,,,0.00,923,WeatherHawk,2013-04-14 21:18:00,
2013-04-14 14:21:00,87.3,39.9,29.63,South,172,9.0,13.0,19,0.00,,,0.00,914,WeatherHawk,2013-04-14 21:21:00,
2013-04-14 14:23:00,87.3,39.9,29.63,SSE,154,6.0,-999.0,19,0.00,,,0.00,915,WeatherHawk,2013-04-14 21:23:00,
2013-04-14 14:24:00,86.9,39.6,29.63,SE,137,7.0,13.0,19,0.00,,,0.00,907,WeatherHawk,2013-04-14 21:24:00,
2013-04-14 14:27:00,86.9,39.6,29.63,South,177,13.0,13.0,19,0.00,,,0.00,907,WeatherHawk,2013-04-14 21:27:00,
2013-04-14 14:28:00,86.9,39.6,29.63,South,177,13.0,13.0,19,0.00,,,0.00,907,WeatherHawk,2013-04-14 21:28:00,
2013-04-14 14:29:00,87.6,40.2,29.63,South,171,10.0,15.0,19,0.00,,,0.00,907,WeatherHawk,2013-04-14 21:29:00,
2013-04-14 14:33:00,86.9,39.6,29.62,South,172,8.0,15.0,19,0.00,,,0.00,895,WeatherHawk,2013-04-14 21:33:00,
2013-04-14 14:38:00,87.6,38.8,29.62,South,177,9.0,15.0,18,0.00,,,0.00,895,WeatherHawk,2013-04-14 21:38:00,
2013-04-14 14:39:00,86.9,39.6,29.62,SSW,195,8.0,14.0,19,0.00,,,0.00,883,WeatherHawk,2013-04-14 21:39:00,
2013-04-14 14:41:00,86.9,39.6,29.62,South,185,8.0,14.0,19,0.00,,,0.00,872,WeatherHawk,2013-04-14 21:41:00,
2013-04-14 14:43:00,87.3,39.9,29.62,South,169,8.0,14.0,19,0.00,,,0.00,871,WeatherHawk,2013-04-14 21:43:00,
2013-04-14 14:44:00,87.4,40.1,29.62,South,176,8.0,14.0,19,0.00,,,0.00,863,WeatherHawk,2013-04-14 21:44:00,
2013-04-14 14:46:00,87.4,40.1,29.62,South,188,5.0,14.0,19,0.00,,,0.00,858,WeatherHawk,2013-04-14 21:46:00,
2013-04-14 14:48:00,87.3,39.9,29.62,SSW,198,10.0,14.0,19,0.00,,,0.00,858,WeatherHawk,2013-04-14 21:48:00,
2013-04-14 14:52:00,87.1,39.8,29.62,SSW,205,11.0,11.0,19,0.00,,,0.00,847,WeatherHawk,2013-04-14 21:52:00,
2013-04-14 14:53:00,87.1,39.8,29.62,SSW,205,11.0,-999.0,19,0.00,,,0.00,847,WeatherHawk,2013-04-14 21:53:00,
2013-04-14 14:54:00,86.4,40.5,29.62,SSW,196,5.0,10.0,20,0.00,,,0.00,842,WeatherHawk,2013-04-14 21:54:00,
2013-04-14 14:58:00,87.3,39.9,29.61,SSE,153,7.0,10.0,19,0.00,,,0.00,841,WeatherHawk,2013-04-14 21:58:00,
2013-04-14 14:59:00,86.9,41.0,29.61,SE,139,10.0,18.0,20,0.00,,,0.00,835,WeatherHawk,2013-04-14 21:59:00,
2013-04-14 15:00:00,86.9,39.6,29.61,SSE,152,11.0,18.0,19,0.00,,,0.00,822,WeatherHawk,2013-04-14 22:00:00,
2013-04-14 15:05:00,87.3,39.9,29.61,South,177,13.0,18.0,19,0.00,,,0.00,818,WeatherHawk,2013-04-14 22:05:00,
2013-04-14 15:06:00,86.9,39.6,29.61,South,184,12.0,18.0,19,0.00,,,0.00,818,WeatherHawk,2013-04-14 22:06:00,
2013-04-14 15:07:00,86.9,39.6,29.61,SSW,195,4.0,18.0,19,0.00,,,0.00,814,WeatherHawk,2013-04-14 22:07:00,
2013-04-14 15:12:00,87.4,40.1,29.61,SSW,203,9.0,20.0,19,0.00,,,0.00,793,WeatherHawk,2013-04-14 22:12:00,
2013-04-14 15:13:00,87.4,40.1,29.61,SSW,203,9.0,20.0,19,0.00,,,0.00,793,WeatherHawk,2013-04-14 22:13:00,
2013-04-14 15:18:00,86.9,39.6,29.60,South,177,13.0,20.0,19,0.00,,,0.00,783,WeatherHawk,2013-04-14 22:18:00,
2013-04-14 15:23:00,86.9,39.6,29.60,SE,132,9.0,15.0,19,0.00,,,0.00,773,WeatherHawk,2013-04-14 22:23:00,
2013-04-14 15:28:00,87.4,40.1,29.60,SSW,207,13.0,15.0,19,0.00,,,0.00,760,WeatherHawk,2013-04-14 22:28:00,
2013-04-14 15:33:00,88.0,39.1,29.59,South,169,14.0,15.0,18,0.00,,,0.00,736,WeatherHawk,2013-04-14 22:33:00,
2013-04-14 15:34:00,87.8,39.0,29.60,SE,128,9.0,15.0,18,0.00,,,0.00,734,WeatherHawk,2013-04-14 22:34:00,
2013-04-14 15:35:00,87.4,40.1,29.60,SSE,165,8.0,15.0,19,0.00,,,0.00,733,WeatherHawk,2013-04-14 22:35:00,
2013-04-14 15:39:00,88.2,39.3,29.59,SSW,204,10.0,26.0,18,0.00,,,0.00,723,WeatherHawk,2013-04-14 22:39:00,
2013-04-14 15:42:00,87.8,39.0,29.59,South,186,13.0,26.0,18,0.00,,,0.00,713,WeatherHawk,2013-04-14 22:42:00,
2013-04-14 15:43:00,87.8,39.0,29.59,SSW,206,12.0,26.0,18,0.00,,,0.00,712,WeatherHawk,2013-04-14 22:43:00,
2013-04-14 15:44:00,88.2,39.3,29.59,SW,216,11.0,26.0,18,0.00,,,0.00,708,WeatherHawk,2013-04-14 22:44:00,
2013-04-14 15:46:00,88.3,39.4,29.59,SSW,205,12.0,26.0,18,0.00,,,0.00,702,WeatherHawk,2013-04-14 22:46:00,
2013-04-14 15:48:00,88.3,39.4,29.59,SSW,211,12.0,26.0,18,0.00,,,0.00,698,WeatherHawk,2013-04-14 22:48:00,
2013-04-14 15:50:00,88.2,39.3,29.59,SSW,213,13.0,16.0,18,0.00,,,0.00,682,WeatherHawk,2013-04-14 22:50:00,
2013-04-14 15:52:00,87.4,40.1,29.59,SSW,212,6.0,16.0,19,0.00,,,0.00,675,WeatherHawk,2013-04-14 22:52:00,
2013-04-14 15:53:00,87.4,40.1,29.59,SSW,212,6.0,16.0,19,0.00,,,0.00,675,WeatherHawk,2013-04-14 22:53:00,
2013-04-14 15:58:00,87.6,40.2,29.59,South,184,8.0,16.0,19,0.00,,,0.00,659,WeatherHawk,2013-04-14 22:58:00,
2013-04-14 15:59:00,88.0,39.1,29.59,South,179,17.0,17.0,18,0.00,,,0.00,653,WeatherHawk,2013-04-14 22:59:00,
2013-04-14 16:04:00,87.1,39.8,29.59,SSE,150,13.0,16.0,19,0.00,,,0.00,637,WeatherHawk,2013-04-14 23:04:00,
2013-04-14 16:07:00,86.9,39.6,29.59,SSE,167,5.0,16.0,19,0.00,,,0.00,625,WeatherHawk,2013-04-14 23:07:00,
2013-04-14 16:08:00,87.1,39.8,29.59,SSE,149,7.0,16.0,19,0.00,,,0.00,620,WeatherHawk,2013-04-14 23:08:00,
2013-04-14 16:12:00,88.2,42.0,29.59,SE,140,11.0,18.0,20,0.00,,,0.00,604,WeatherHawk,2013-04-14 23:12:00,
2013-04-14 16:13:00,88.2,42.0,29.59,SE,143,12.0,18.0,20,0.00,,,0.00,604,WeatherHawk,2013-04-14 23:13:00,
2013-04-14 16:15:00,88.3,40.8,29.59,South,191,7.0,18.0,19,0.00,,,0.00,598,WeatherHawk,2013-04-14 23:15:00,
2013-04-14 16:18:00,88.5,39.6,29.59,SSW,196,10.0,-999.0,18,0.00,,,0.00,590,WeatherHawk,2013-04-14 23:18:00,
2013-04-14 16:20:00,88.2,39.3,29.59,South,182,11.0,15.0,18,0.00,,,0.00,575,WeatherHawk,2013-04-14 23:20:00,
2013-04-14 16:22:00,87.4,40.1,29.59,SSE,161,13.0,15.0,19,0.00,,,0.00,566,WeatherHawk,2013-04-14 23:22:00,
2013-04-14 16:23:00,87.4,40.1,29.59,SSE,161,13.0,-999.0,19,0.00,,,0.00,566,WeatherHawk,2013-04-14 23:23:00,
2013-04-14 16:24:00,87.3,39.9,29.59,South,169,9.0,15.0,19,0.00,,,0.00,562,WeatherHawk,2013-04-14 23:24:00,
2013-04-14 16:27:00,86.9,41.0,29.59,South,187,8.0,15.0,20,0.00,,,0.00,550,WeatherHawk,2013-04-14 23:27:00,
2013-04-14 16:28:00,86.9,41.0,29.59,South,184,10.0,15.0,20,0.00,,,0.00,547,WeatherHawk,2013-04-14 23:28:00,
2013-04-14 16:33:00,87.3,41.3,29.58,South,170,14.0,15.0,20,0.00,,,0.00,529,WeatherHawk,2013-04-14 23:33:00,
2013-04-14 16:34:00,87.1,41.1,29.58,South,176,13.0,15.0,20,0.00,,,0.00,522,WeatherHawk,2013-04-14 23:34:00,
2013-04-14 16:38:00,87.1,41.1,29.58,SE,126,13.0,15.0,20,0.00,,,0.00,513,WeatherHawk,2013-04-14 23:38:00,
2013-04-14 16:39:00,86.9,41.0,29.58,SSE,161,15.0,18.0,20,0.00,,,0.00,506,WeatherHawk,2013-04-14 23:39:00,
2013-04-14 16:43:00,87.4,41.4,29.58,SSW,203,8.0,18.0,20,0.00,,,0.00,492,WeatherHawk,2013-04-14 23:43:00,
2013-04-14 16:49:00,87.4,42.7,29.58,South,170,19.0,19.0,21,0.00,,,0.00,463,WeatherHawk,2013-04-14 23:49:00,
2013-04-14 16:52:00,87.3,42.5,29.58,South,183,16.0,18.0,21,0.00,,,0.00,451,WeatherHawk,2013-04-14 23:52:00,
2013-04-14 16:53:00,87.3,42.5,29.58,South,183,16.0,-999.0,21,0.00,,,0.00,451,WeatherHawk,2013-04-14 23:53:00,
2013-04-14 16:58:00,85.8,42.5,29.58,South,175,16.0,-999.0,22,0.00,,,0.00,425,WeatherHawk,2013-04-14 23:58:00,
2013-04-14 17:00:00,86.0,42.7,29.58,SSE,168,20.0,22.0,22,0.00,,,0.00,416,WeatherHawk,2013-04-15 00:00:00,
2013-04-14 17:03:00,85.8,43.7,29.58,SE,124,15.0,22.0,23,0.00,,,0.00,402,WeatherHawk,2013-04-15 00:03:00,
2013-04-14 17:06:00,86.2,42.8,29.58,SE,131,20.0,22.0,22,0.00,,,0.00,394,WeatherHawk,2013-04-15 00:06:00,
2013-04-14 17:09:00,86.0,43.9,29.58,SSE,153,15.0,20.0,23,0.00,,,0.00,376,WeatherHawk,2013-04-15 00:09:00,
2013-04-14 17:15:00,85.5,43.4,29.58,SE,143,21.0,21.0,23,0.00,,,0.00,358,WeatherHawk,2013-04-15 00:15:00,
2013-04-14 17:17:00,85.3,43.3,29.58,SE,126,16.0,20.0,23,0.00,,,0.00,358,WeatherHawk,2013-04-15 00:17:00,
2013-04-14 17:18:00,85.3,43.3,29.58,SE,126,16.0,-999.0,23,0.00,,,0.00,358,WeatherHawk,2013-04-15 00:18:00,
2013-04-14 17:22:00,85.5,43.4,29.58,SSE,152,14.0,21.0,23,0.00,,,0.00,340,WeatherHawk,2013-04-15 00:22:00,
2013-04-14 17:23:00,85.5,43.4,29.58,SSE,152,14.0,21.0,23,0.00,,,0.00,340,WeatherHawk,2013-04-15 00:23:00,
2013-04-14 17:27:00,85.1,43.1,29.58,SE,130,22.0,22.0,23,0.00,,,0.00,316,WeatherHawk,2013-04-15 00:27:00,
2013-04-14 17:28:00,84.7,42.8,29.58,SE,138,20.0,0.0,23,0.00,,,0.00,319,WeatherHawk,2013-04-15 00:28:00,
2013-04-14 17:30:00,84.6,42.7,29.58,SSE,159,19.0,23.0,23,0.00,,,0.00,296,WeatherHawk,2013-04-15 00:30:00,
2013-04-14 17:33:00,84.6,42.7,29.58,SE,141,19.0,23.0,23,0.00,,,0.00,292,WeatherHawk,2013-04-15 00:33:00,
2013-04-14 17:35:00,84.6,42.7,29.58,SSE,153,15.0,23.0,23,0.00,,,0.00,281,WeatherHawk,2013-04-15 00:35:00,
2013-04-14 17:38:00,84.6,42.7,29.59,SE,142,15.0,-999.0,23,0.00,,,0.00,273,WeatherHawk,2013-04-15 00:38:00,
2013-04-14 17:39:00,84.6,42.7,29.58,SE,142,18.0,21.0,23,0.00,,,0.00,264,WeatherHawk,2013-04-15 00:39:00,
2013-04-14 17:43:00,83.8,43.2,29.59,SSE,156,17.0,21.0,24,0.00,,,0.00,251,WeatherHawk,2013-04-15 00:43:00,
2013-04-14 17:45:00,83.7,43.0,29.59,SE,140,13.0,21.0,24,0.00,,,0.00,245,WeatherHawk,2013-04-15 00:45:00,
2013-04-14 17:47:00,83.5,42.9,29.58,SSE,151,23.0,23.0,24,0.00,,,0.00,234,WeatherHawk,2013-04-15 00:47:00,
2013-04-14 17:51:00,83.1,42.6,29.58,SSE,148,17.0,24.0,24,0.00,,,0.00,219,WeatherHawk,2013-04-15 00:51:00,
2013-04-14 17:52:00,82.9,42.4,29.58,SE,140,21.0,24.0,24,0.00,,,0.00,213,WeatherHawk,2013-04-15 00:52:00,
2013-04-14 17:57:00,82.8,43.3,29.58,SE,127,19.0,24.0,25,0.00,,,0.00,200,WeatherHawk,2013-04-15 00:57:00,
2013-04-14 17:58:00,82.6,43.2,29.58,SE,134,17.0,24.0,25,0.00,,,0.00,192,WeatherHawk,2013-04-15 00:58:00,
2013-04-14 18:02:00,82.9,43.5,29.59,SE,138,13.0,-999.0,25,0.00,,,0.00,180,WeatherHawk,2013-04-15 01:02:00,
2013-04-14 18:03:00,82.8,43.3,29.58,SE,146,18.0,24.0,25,0.00,,,0.00,175,WeatherHawk,2013-04-15 01:03:00,
2013-04-14 18:05:00,82.6,43.2,29.58,SSE,149,17.0,24.0,25,0.00,,,0.00,169,WeatherHawk,2013-04-15 01:05:00,
2013-04-14 18:08:00,82.0,42.7,29.58,SSE,150,23.0,24.0,25,0.00,,,0.00,162,WeatherHawk,2013-04-15 01:08:00,
2013-04-14 18:12:00,81.7,43.4,29.58,SE,136,18.0,23.0,26,0.00,,,0.00,150,WeatherHawk,2013-04-15 01:12:00,
2013-04-14 18:13:00,81.5,44.3,29.58,SE,140,20.0,23.0,27,0.00,,,0.00,142,WeatherHawk,2013-04-15 01:13:00,
2013-04-14 18:14:00,81.3,44.1,29.59,SE,142,13.0,23.0,27,0.00,,,0.00,138,WeatherHawk,2013-04-15 01:14:00,
2013-04-14 18:17:00,81.3,44.1,29.58,SSE,150,17.0,-999.0,27,0.00,,,0.00,129,WeatherHawk,2013-04-15 01:17:00,
2013-04-14 18:21:00,81.0,44.8,29.58,SE,135,15.0,24.0,28,0.00,,,0.00,112,WeatherHawk,2013-04-15 01:21:00,
2013-04-14 18:22:00,81.0,44.8,29.59,SSE,154,15.0,24.0,28,0.00,,,0.00,109,WeatherHawk,2013-04-15 01:22:00,
2013-04-14 18:23:00,81.0,44.8,29.59,SE,136,15.0,24.0,28,0.00,,,0.00,105,WeatherHawk,2013-04-15 01:23:00,
2013-04-14 18:27:00,80.4,45.2,29.58,SE,141,21.0,24.0,29,0.00,,,0.00,91,WeatherHawk,2013-04-15 01:27:00,
2013-04-14 18:31:00,80.2,45.1,29.58,SSE,153,19.0,23.0,29,0.00,,,0.00,80,WeatherHawk,2013-04-15 01:31:00,
2013-04-14 18:32:00,80.1,44.9,29.59,SE,135,15.0,23.0,29,0.00,,,0.00,77,WeatherHawk,2013-04-15 01:32:00,
2013-04-14 18:33:00,80.1,44.9,29.59,SE,144,15.0,23.0,29,0.00,,,0.00,73,WeatherHawk,2013-04-15 01:33:00,
2013-04-14 18:37:00,79.9,44.8,29.59,SE,132,17.0,23.0,29,0.00,,,0.00,64,WeatherHawk,2013-04-15 01:37:00,
2013-04-14 18:40:00,79.5,46.2,29.59,SE,143,14.0,21.0,31,0.00,,,0.00,52,WeatherHawk,2013-04-15 01:40:00,
2013-04-14 18:42:00,79.3,46.9,29.59,SE,137,18.0,-999.0,32,0.00,,,0.00,45,WeatherHawk,2013-04-15 01:42:00,
2013-04-14 18:43:00,79.3,46.9,29.59,SE,137,18.0,21.0,32,0.00,,,0.00,45,WeatherHawk,2013-04-15 01:43:00,
2013-04-14 18:45:00,79.0,47.4,29.59,SE,137,15.0,21.0,33,0.00,,,0.00,38,WeatherHawk,2013-04-15 01:45:00,
2013-04-14 18:47:00,79.0,47.4,29.59,SE,137,15.0,-999.0,33,0.00,,,0.00,38,WeatherHawk,2013-04-15 01:47:00,
2013-04-14 18:48:00,78.8,47.2,29.59,SE,139,14.0,-999.0,33,0.00,,,0.00,33,WeatherHawk,2013-04-15 01:48:00,
2013-04-14 18:50:00,78.6,47.1,29.59,SE,142,13.0,20.0,33,0.00,,,0.00,25,WeatherHawk,2013-04-15 01:50:00,
2013-04-14 18:52:00,78.4,47.7,29.59,SE,144,13.0,20.0,34,0.00,,,0.00,22,WeatherHawk,2013-04-15 01:52:00,
2013-04-14 18:53:00,78.4,47.7,29.59,SE,144,13.0,20.0,34,0.00,,,0.00,22,WeatherHawk,2013-04-15 01:53:00,
2013-04-14 18:54:00,78.4,47.7,29.59,SSE,150,17.0,20.0,34,0.00,,,0.00,21,WeatherHawk,2013-04-15 01:54:00,
2013-04-14 18:58:00,78.1,48.2,29.59,SE,146,14.0,20.0,35,0.00,,,0.00,14,WeatherHawk,2013-04-15 01:58:00,
2013-04-14 19:00:00,77.9,48.0,29.59,SE,139,15.0,19.0,35,0.00,,,0.00,11,WeatherHawk,2013-04-15 02:00:00,
2013-04-14 19:01:00,77.9,48.0,29.59,SE,143,15.0,19.0,35,0.00,,,0.00,10,WeatherHawk,2013-04-15 02:01:00,
2013-04-14 19:04:00,77.7,48.6,29.59,SE,131,15.0,19.0,36,0.00,,,0.00,8,WeatherHawk,2013-04-15 02:04:00,
2013-04-14 19:06:00,77.5,48.5,29.59,SE,146,14.0,19.0,36,0.00,,,0.00,6,WeatherHawk,2013-04-15 02:06:00,
2013-04-14 19:09:00,77.5,48.5,29.59,SE,145,18.0,19.0,36,0.00,,,0.00,6,WeatherHawk,2013-04-15 02:09:00,
2013-04-14 19:11:00,77.2,48.9,29.59,SSE,149,17.0,19.0,37,0.00,,,0.00,2,WeatherHawk,2013-04-15 02:11:00,
2013-04-14 19:13:00,77.0,49.4,29.59,SSE,151,17.0,19.0,38,0.00,,,0.00,3,WeatherHawk,2013-04-15 02:13:00,
2013-04-14 19:14:00,77.0,49.4,29.59,SSE,151,17.0,19.0,38,0.00,,,0.00,3,WeatherHawk,2013-04-15 02:14:00,
2013-04-14 19:17:00,76.6,49.8,29.59,SSE,149,15.0,19.0,39,0.00,,,0.00,3,WeatherHawk,2013-04-15 02:17:00,
2013-04-14 19:18:00,76.6,49.8,29.59,SE,143,14.0,19.0,39,0.00,,,0.00,2,WeatherHawk,2013-04-15 02:18:00,
2013-04-14 19:20:00,76.5,49.6,29.59,SE,144,15.0,19.0,39,0.00,,,0.00,0,WeatherHawk,2013-04-15 02:20:00,
2013-04-14 19:22:00,76.3,49.5,29.59,SE,142,17.0,19.0,39,0.00,,,0.00,0,WeatherHawk,2013-04-15 02:22:00,
2013-04-14 19:23:00,76.3,50.2,29.59,SE,129,18.0,19.0,40,0.00,,,0.00,0,WeatherHawk,2013-04-15 02:23:00,
2013-04-14 19:26:00,75.9,49.8,29.59,SE,146,20.0,20.0,40,0.00,,,0.00,0,WeatherHawk,2013-04-15 02:26:00,
2013-04-14 19:28:00,75.7,49.7,29.60,SE,134,14.0,19.0,40,0.00,,,0.00,0,WeatherHawk,2013-04-15 02:28:00,
2013-04-14 19:33:00,75.4,50.0,29.60,SE,132,15.0,21.0,41,0.00,,,0.00,0,WeatherHawk,2013-04-15 02:33:00,
2013-04-14 19:34:00,75.4,50.0,29.60,SE,132,15.0,21.0,41,0.00,,,0.00,0,WeatherHawk,2013-04-15 02:34:00,
2013-04-14 19:35:00,75.2,49.9,29.60,SE,133,16.0,21.0,41,0.00,,,0.00,0,WeatherHawk,2013-04-15 02:35:00,
2013-04-14 19:39:00,74.8,50.2,29.60,SE,124,15.0,0.0,42,0.00,,,0.00,0,WeatherHawk,2013-04-15 02:39:00,
2013-04-14 19:40:00,74.8,50.2,29.60,SE,138,13.0,21.0,42,0.00,,,0.00,0,WeatherHawk,2013-04-15 02:40:00,
2013-04-14 19:41:00,74.7,50.0,29.60,SE,139,16.0,21.0,42,0.00,,,0.00,0,WeatherHawk,2013-04-15 02:41:00,
2013-04-14 19:43:00,74.5,50.5,29.60,SE,125,18.0,-999.0,43,0.00,,,0.00,0,WeatherHawk,2013-04-15 02:43:00,
2013-04-14 19:47:00,74.1,50.2,29.59,SE,138,15.0,21.0,43,0.00,,,0.00,0,WeatherHawk,2013-04-15 02:47:00,
2013-04-14 19:48:00,74.1,50.2,29.59,SE,138,15.0,21.0,43,0.00,,,0.00,0,WeatherHawk,2013-04-15 02:48:00,
2013-04-14 19:50:00,74.1,50.2,29.60,SE,135,16.0,19.0,43,0.00,,,0.00,0,WeatherHawk,2013-04-15 02:50:00,
2013-04-14 19:53:00,73.9,50.0,29.60,SE,128,15.0,19.0,43,0.00,,,0.00,0,WeatherHawk,2013-04-15 02:53:00,
2013-04-14 19:55:00,73.8,49.9,29.60,SE,131,17.0,19.0,43,0.00,,,0.00,0,WeatherHawk,2013-04-15 02:55:00,
2013-04-14 19:58:00,73.8,49.9,29.60,SE,134,14.0,-999.0,43,0.00,,,0.00,0,WeatherHawk,2013-04-15 02:58:00,
2013-04-14 20:01:00,73.6,49.7,29.60,SE,130,20.0,20.0,43,0.00,,,0.00,0,WeatherHawk,2013-04-15 03:01:00,
2013-04-14 20:02:00,73.6,49.7,29.60,SE,132,18.0,20.0,43,0.00,,,0.00,0,WeatherHawk,2013-04-15 03:02:00,
2013-04-14 20:04:00,73.4,49.5,29.60,SE,138,17.0,20.0,43,0.00,,,0.00,0,WeatherHawk,2013-04-15 03:04:00,
2013-04-14 20:07:00,73.2,49.4,29.60,SE,136,15.0,20.0,43,0.00,,,0.00,1,WeatherHawk,2013-04-15 03:07:00,
2013-04-14 20:08:00,73.2,49.4,29.60,SE,136,15.0,-999.0,43,0.00,,,0.00,1,WeatherHawk,2013-04-15 03:08:00,
2013-04-14 20:10:00,73.2,49.4,29.60,SE,130,17.0,23.0,43,0.00,,,0.00,0,WeatherHawk,2013-04-15 03:10:00,
2013-04-14 20:13:00,73.2,49.4,29.60,SE,139,14.0,-999.0,43,0.00,,,0.00,0,WeatherHawk,2013-04-15 03:13:00,
2013-04-14 20:15:00,73.0,49.2,29.61,SE,135,13.0,23.0,43,0.00,,,0.00,0,WeatherHawk,2013-04-15 03:15:00,
2013-04-14 20:16:00,72.9,49.0,29.60,SE,130,16.0,23.0,43,0.00,,,0.00,0,WeatherHawk,2013-04-15 03:16:00,
2013-04-14 20:18:00,72.9,49.7,29.60,SE,140,16.0,23.0,44,0.00,,,0.00,0,WeatherHawk,2013-04-15 03:18:00,
2013-04-14 20:21:00,72.9,49.7,29.60,SSE,147,17.0,21.0,44,0.00,,,0.00,0,WeatherHawk,2013-04-15 03:21:00,
2013-04-14 20:23:00,72.9,49.7,29.60,SE,141,17.0,-999.0,44,0.00,,,0.00,1,WeatherHawk,2013-04-15 03:23:00,
2013-04-14 20:24:00,72.9,49.7,29.60,SE,135,19.0,21.0,44,0.00,,,0.00,0,WeatherHawk,2013-04-15 03:24:00,
2013-04-14 20:26:00,72.7,49.5,29.60,SE,141,23.0,23.0,44,0.00,,,0.00,0,WeatherHawk,2013-04-15 03:26:00,
2013-04-14 20:28:00,72.7,49.5,29.60,SE,142,21.0,-999.0,44,0.00,,,0.00,0,WeatherHawk,2013-04-15 03:28:00,
2013-04-14 20:30:00,72.7,50.1,29.61,SE,140,16.0,24.0,45,0.00,,,0.00,0,WeatherHawk,2013-04-15 03:30:00,
2013-04-14 20:33:00,72.5,49.9,29.60,SE,130,21.0,24.0,45,0.00,,,0.00,0,WeatherHawk,2013-04-15 03:33:00,
2013-04-14 20:34:00,72.3,50.4,29.60,SE,139,18.0,24.0,46,0.00,,,0.00,0,WeatherHawk,2013-04-15 03:34:00,
2013-04-14 20:36:00,72.3,50.4,29.60,SE,141,18.0,24.0,46,0.00,,,0.00,1,WeatherHawk,2013-04-15 03:36:00,
2013-04-14 20:37:00,72.1,50.2,29.60,SE,141,21.0,24.0,46,0.00,,,0.00,0,WeatherHawk,2013-04-15 03:37:00,
2013-04-14 20:38:00,72.1,50.2,29.60,SE,141,21.0,24.0,46,0.00,,,0.00,0,WeatherHawk,2013-04-15 03:38:00,
2013-04-14 20:43:00,72.0,50.6,29.60,SE,138,20.0,25.0,47,0.00,,,0.00,0,WeatherHawk,2013-04-15 03:43:00,
2013-04-14 20:45:00,71.8,51.0,29.60,SE,138,19.0,25.0,48,0.00,,,0.00,0,WeatherHawk,2013-04-15 03:45:00,
2013-04-14 20:48:00,71.8,51.0,29.61,SE,134,17.0,25.0,48,0.00,,,0.00,0,WeatherHawk,2013-04-15 03:48:00,
2013-04-14 20:50:00,71.6,50.9,29.61,SE,130,17.0,26.0,48,0.00,,,0.00,0,WeatherHawk,2013-04-15 03:50:00,
2013-04-14 20:52:00,71.4,51.2,29.61,SE,144,20.0,26.0,49,0.00,,,0.00,0,WeatherHawk,2013-04-15 03:52:00,
2013-04-14 20:53:00,71.4,51.2,29.61,SE,144,20.0,-999.0,49,0.00,,,0.00,0,WeatherHawk,2013-04-15 03:53:00,
2013-04-14 20:56:00,71.2,51.6,29.61,SE,128,16.0,26.0,50,0.00,,,0.00,0,WeatherHawk,2013-04-15 03:56:00,
2013-04-14 20:58:00,71.1,51.5,29.61,SE,136,19.0,26.0,50,0.00,,,0.00,0,WeatherHawk,2013-04-15 03:58:00,
2013-04-14 21:00:00,71.1,51.5,29.61,SE,143,19.0,23.0,50,0.00,,,0.00,0,WeatherHawk,2013-04-15 04:00:00,
2013-04-14 21:02:00,71.1,51.5,29.61,SE,134,13.0,23.0,50,0.00,,,0.00,0,WeatherHawk,2013-04-15 04:02:00,
2013-04-14 21:07:00,70.7,51.7,29.61,SSE,147,17.0,23.0,51,0.00,,,0.00,0,WeatherHawk,2013-04-15 04:07:00,
2013-04-14 21:08:00,70.7,51.7,29.60,SE,131,22.0,23.0,51,0.00,,,0.00,0,WeatherHawk,2013-04-15 04:08:00,
2013-04-14 21:09:00,70.7,51.7,29.61,SE,145,22.0,24.0,51,0.00,,,0.00,0,WeatherHawk,2013-04-15 04:09:00,
2013-04-14 21:14:00,70.5,52.0,29.61,SE,132,13.0,24.0,52,0.00,,,0.00,0,WeatherHawk,2013-04-15 04:14:00,
2013-04-14 21:15:00,70.5,52.0,29.61,ESE,123,15.0,24.0,52,0.00,,,0.00,0,WeatherHawk,2013-04-15 04:15:00,
2013-04-14 21:17:00,70.5,52.0,29.61,SE,125,19.0,24.0,52,0.00,,,0.00,0,WeatherHawk,2013-04-15 04:17:00,
2013-04-14 21:21:00,70.3,51.9,29.61,SE,137,15.0,25.0,52,0.00,,,0.00,1,WeatherHawk,2013-04-15 04:21:00,
2013-04-14 21:23:00,70.3,51.9,29.61,SE,133,16.0,25.0,52,0.00,,,0.00,0,WeatherHawk,2013-04-15 04:23:00,
2013-04-14 21:25:00,70.2,51.7,29.61,SE,132,13.0,25.0,52,0.00,,,0.00,0,WeatherHawk,2013-04-15 04:25:00,
2013-04-14 21:28:00,70.2,51.7,29.61,SE,135,16.0,25.0,52,0.00,,,0.00,0,WeatherHawk,2013-04-15 04:28:00,
2013-04-14 21:31:00,70.2,51.7,29.61,SE,126,13.0,22.0,52,0.00,,,0.00,0,WeatherHawk,2013-04-15 04:31:00,
2013-04-14 21:33:00,70.2,51.7,29.62,SE,135,13.0,22.0,52,0.00,,,0.00,0,WeatherHawk,2013-04-15 04:33:00,
2013-04-14 21:37:00,70.0,51.5,29.62,SE,135,15.0,22.0,52,0.00,,,0.00,0,WeatherHawk,2013-04-15 04:37:00,
2013-04-14 21:38:00,70.0,51.5,29.62,SE,135,15.0,-999.0,52,0.00,,,0.00,0,WeatherHawk,2013-04-15 04:38:00,
2013-04-14 21:39:00,70.0,51.5,29.62,SE,143,13.0,21.0,52,0.00,,,0.00,0,WeatherHawk,2013-04-15 04:39:00,
2013-04-14 21:42:00,70.0,52.1,29.62,SE,143,17.0,21.0,53,0.00,,,0.00,0,WeatherHawk,2013-04-15 04:42:00,
2013-04-14 21:43:00,70.0,52.1,29.62,SE,143,17.0,-999.0,53,0.00,,,0.00,0,WeatherHawk,2013-04-15 04:43:00,
2013-04-14 21:44:00,70.0,52.1,29.62,SE,140,14.0,21.0,53,0.00,,,0.00,0,WeatherHawk,2013-04-15 04:44:00,
2013-04-14 21:46:00,69.8,51.9,29.62,SE,141,15.0,21.0,53,0.00,,,0.00,0,WeatherHawk,2013-04-15 04:46:00,
2013-04-14 21:48:00,69.8,51.9,29.63,SE,137,11.0,21.0,53,0.00,,,0.00,1,WeatherHawk,2013-04-15 04:48:00,
2013-04-14 21:53:00,69.6,52.2,29.63,SE,143,9.0,20.0,54,0.00,,,0.00,1,WeatherHawk,2013-04-15 04:53:00,
2013-04-14 21:57:00,69.6,52.2,29.64,South,179,5.0,20.0,54,0.00,,,0.00,0,WeatherHawk,2013-04-15 04:57:00,
2013-04-14 21:58:00,69.6,52.2,29.64,South,179,5.0,20.0,54,0.00,,,0.00,0,WeatherHawk,2013-04-15 04:58:00,
2013-04-14 22:03:00,69.6,52.2,29.64,SSW,193,10.0,17.0,54,0.00,,,0.00,0,WeatherHawk,2013-04-15 05:03:00,
2013-04-14 22:07:00,69.6,52.7,29.64,South,185,9.0,17.0,55,0.00,,,0.00,0,WeatherHawk,2013-04-15 05:07:00,
2013-04-14 22:08:00,69.6,52.7,29.64,South,185,9.0,17.0,55,0.00,,,0.00,0,WeatherHawk,2013-04-15 05:08:00,
2013-04-14 22:12:00,69.4,52.6,29.64,South,188,6.0,11.0,55,0.00,,,0.00,0,WeatherHawk,2013-04-15 05:12:00,
2013-04-14 22:13:00,69.4,52.6,29.64,South,188,6.0,11.0,55,0.00,,,0.00,0,WeatherHawk,2013-04-15 05:13:00,
2013-04-14 22:14:00,69.4,52.6,29.65,South,190,8.0,11.0,55,0.00,,,0.00,1,WeatherHawk,2013-04-15 05:14:00,
2013-04-14 22:18:00,69.3,52.4,29.64,South,184,9.0,11.0,55,0.00,,,0.00,0,WeatherHawk,2013-04-15 05:18:00,
2013-04-14 22:21:00,69.3,52.4,29.64,SSW,195,5.0,9.0,55,0.00,,,0.00,0,WeatherHawk,2013-04-15 05:21:00,
2013-04-14 22:23:00,69.3,52.4,29.64,South,175,6.0,-999.0,55,0.00,,,0.00,0,WeatherHawk,2013-04-15 05:23:00,
2013-04-14 22:29:00,69.1,52.7,29.65,SSE,153,5.0,0.0,56,0.00,,,0.00,0,WeatherHawk,2013-04-15 05:29:00,
2013-04-14 22:31:00,69.1,52.7,29.65,SSW,206,4.0,10.0,56,0.00,,,0.00,0,WeatherHawk,2013-04-15 05:31:00,
2013-04-14 22:32:00,69.1,52.7,29.65,South,179,5.0,10.0,56,0.00,,,0.00,1,WeatherHawk,2013-04-15 05:32:00,
2013-04-14 22:37:00,68.9,52.5,29.65,SSW,201,2.0,10.0,56,0.00,,,0.00,0,WeatherHawk,2013-04-15 05:37:00,
2013-04-14 22:38:00,68.9,52.5,29.65,South,175,4.0,-999.0,56,0.00,,,0.00,0,WeatherHawk,2013-04-15 05:38:00,
2013-04-14 22:40:00,68.7,52.9,29.65,SSW,209,3.0,6.0,57,0.00,,,0.00,0,WeatherHawk,2013-04-15 05:40:00,
2013-04-14 22:42:00,68.7,52.9,29.65,SSW,206,3.0,6.0,57,0.00,,,0.00,0,WeatherHawk,2013-04-15 05:42:00,
2013-04-14 22:43:00,68.7,52.9,29.65,SSW,206,3.0,6.0,57,0.00,,,0.00,0,WeatherHawk,2013-04-15 05:43:00,
2013-04-14 22:45:00,68.5,52.7,29.65,South,171,3.0,6.0,57,0.00,,,0.00,0,WeatherHawk,2013-04-15 05:45:00,
2013-04-14 22:48:00,68.5,52.7,29.65,South,178,5.0,-999.0,57,0.00,,,0.00,0,WeatherHawk,2013-04-15 05:48:00,
2013-04-14 22:53:00,68.7,52.4,29.65,South,169,5.0,-999.0,56,0.00,,,0.00,0,WeatherHawk,2013-04-15 05:53:00,
2013-04-14 22:55:00,68.5,52.2,29.65,South,185,6.0,6.0,56,0.00,,,0.00,0,WeatherHawk,2013-04-15 05:55:00,
2013-04-14 22:57:00,68.5,52.2,29.65,South,174,6.0,6.0,56,0.00,,,0.00,0,WeatherHawk,2013-04-15 05:57:00,
2013-04-14 22:58:00,68.5,52.2,29.65,South,170,6.0,0.0,56,0.00,,,0.00,0,WeatherHawk,2013-04-15 05:58:00,
2013-04-14 22:59:00,68.5,52.2,29.65,SSE,158,6.0,8.0,56,0.00,,,0.00,0,WeatherHawk,2013-04-15 05:59:00,
2013-04-14 23:01:00,68.5,52.2,29.65,SSE,167,7.0,8.0,56,0.00,,,0.00,0,WeatherHawk,2013-04-15 06:01:00,
2013-04-14 23:04:00,68.5,52.2,29.65,South,191,6.0,8.0,56,0.00,,,0.00,0,WeatherHawk,2013-04-15 06:04:00,
2013-04-14 23:07:00,68.5,52.2,29.65,South,181,8.0,8.0,56,0.00,,,0.00,0,WeatherHawk,2013-04-15 06:07:00,
2013-04-14 23:08:00,68.4,52.0,29.65,South,178,10.0,10.0,56,0.00,,,0.00,0,WeatherHawk,2013-04-15 06:08:00,
2013-04-14 23:13:00,68.4,51.6,29.65,SSE,167,9.0,11.0,55,0.00,,,0.00,0,WeatherHawk,2013-04-15 06:13:00,
2013-04-14 23:16:00,68.4,51.6,29.65,South,181,8.0,11.0,55,0.00,,,0.00,0,WeatherHawk,2013-04-15 06:16:00,
2013-04-14 23:18:00,68.4,51.6,29.65,South,176,8.0,11.0,55,0.00,,,0.00,0,WeatherHawk,2013-04-15 06:18:00,
2013-04-14 23:22:00,68.2,51.4,29.65,South,181,10.0,12.0,55,0.00,,,0.00,0,WeatherHawk,2013-04-15 06:22:00,
2013-04-14 23:23:00,68.2,51.4,29.65,South,173,9.0,12.0,55,0.00,,,0.00,0,WeatherHawk,2013-04-15 06:23:00,
2013-04-14 23:25:00,68.2,51.4,29.65,South,173,7.0,12.0,55,0.00,,,0.00,0,WeatherHawk,2013-04-15 06:25:00,
2013-04-14 23:28:00,68.2,51.4,29.65,South,173,6.0,12.0,55,0.00,,,0.00,0,WeatherHawk,2013-04-15 06:28:00,
2013-04-14 23:30:00,68.0,51.7,29.65,South,180,6.0,10.0,56,0.00,,,0.00,0,WeatherHawk,2013-04-15 06:30:00,
2013-04-14 23:32:00,68.0,51.7,29.65,South,190,6.0,10.0,56,0.00,,,0.00,1,WeatherHawk,2013-04-15 06:32:00,
2013-04-14 23:37:00,68.0,51.7,29.66,South,172,4.0,10.0,56,0.00,,,0.00,0,WeatherHawk,2013-04-15 06:37:00,
2013-04-14 23:38:00,67.8,51.5,29.66,South,189,4.0,-999.0,56,0.00,,,0.00,0,WeatherHawk,2013-04-15 06:38:00,
2013-04-14 23:39:00,67.8,51.5,29.66,South,176,5.0,7.0,56,0.00,,,0.00,0,WeatherHawk,2013-04-15 06:39:00,
2013-04-14 23:44:00,67.8,51.5,29.66,SSE,162,4.0,7.0,56,0.00,,,0.00,0,WeatherHawk,2013-04-15 06:44:00,
2013-04-14 23:46:00,67.6,51.4,29.66,SSE,166,6.0,7.0,56,0.00,,,0.00,0,WeatherHawk,2013-04-15 06:46:00,
2013-04-14 23:48:00,67.6,51.9,29.66,SSE,155,6.0,7.0,57,0.00,,,0.00,0,WeatherHawk,2013-04-15 06:48:00,
2013-04-14 23:51:00,67.5,51.7,29.66,SSE,162,6.0,7.0,57,0.00,,,0.00,0,WeatherHawk,2013-04-15 06:51:00,
2013-04-14 23:52:00,67.5,51.7,29.66,SSE,148,6.0,7.0,57,0.00,,,0.00,0,WeatherHawk,2013-04-15 06:52:00,
2013-04-14 23:53:00,67.5,51.7,29.66,SSE,148,6.0,7.0,57,0.00,,,0.00,0,WeatherHawk,2013-04-15 06:53:00,
2013-04-14 23:57:00,67.3,51.5,29.66,SE,146,6.0,7.0,57,0.00,,,0.00,0,WeatherHawk,2013-04-15 06:57:00,
2013-04-14 23:58:00,67.3,51.5,29.66,SE,146,6.0,7.0,57,0.00,,,0.00,0,WeatherHawk,2013-04-15 06:58:00,